Darstellungsparameter: Aktuell verwendete Einstellungen:
Skalierung der Graphiken ... ?
xyx+y,   Skalierungsfaktor:      Skalierung: Modus: x, Faktor: 1
Darstellungszeitraum ... ?
Vom - - bis: - -   Zeitraum: 03.11.2020 - 09.11.2020
Min/Max/Avg-Anzeige ... ?
Zeige MMA aktuell
Zeige MMA Monat
Zeige MMA alles
Zeige --A aktuell
Zeige --A Monat
Zeige --A alles
Keine MMA-Anzeige
MMA:
Keine MMA-Graphiken
MMA-Basis: 03.11.2020 - 09.11.2020
Quicknavigation für Darstellung... ?
Tage:      1T, 2T, 3T, 5T -1T -2T -3T -5T +1T +2T +3T +5T
Wochen: 1W, 2W, 3W -1W -2W -3W +1W +2W +3W
Monate: 1M, 3M, 6M -1M -3M -6M +1M +3M +6M
Jahre:    1J, 3J, 5J, 10J -1J -3J -5J -10J +1J +3J +5J +10J
Nutze für die Darstellung ... ?
Originaldaten oder Mittelwerte auf ...
Stundenbasis Tagesbasis Wochenbasis
Monatsbasis Jahresbasis      Datenbasis: Original-Daten
Darstellen als:
Statistik (Auto) Statistik J:M      Darstellung:
Zur Graphik,    zurück zur Übersicht aller Sensoren.
 
Tabellarische Datenbersicht: ?
 
Sensor: Nr:Datum:Temp:Feuchte:Taupunkt:
Aussen-T/F 1 03-11-2020 00:00:00 11.8 C 93 % 10.71 C
2 03-11-2020 00:05:00 11.7 C 93 % 10.61 C
3 03-11-2020 00:10:00 11.7 C 93 % 10.61 C
4 03-11-2020 00:15:00 11.6 C 93 % 10.51 C
5 03-11-2020 00:20:00 11.4 C 93 % 10.31 C
6 03-11-2020 00:25:00 11.4 C 93 % 10.31 C
7 03-11-2020 00:30:00 11.3 C 93 % 10.21 C
8 03-11-2020 00:35:00 11.3 C 93 % 10.21 C
9 03-11-2020 00:40:00 11.3 C 93 % 10.21 C
10 03-11-2020 00:45:00 11.4 C 91 % 9.98 C
11 03-11-2020 00:50:00 11.5 C 90 % 9.92 C
12 03-11-2020 00:55:00 11.4 C 90 % 9.82 C
13 03-11-2020 01:00:00 11.4 C 89 % 9.65 C
14 03-11-2020 01:05:00 11.4 C 88 % 9.49 C
15 03-11-2020 01:10:00 11.4 C 88 % 9.49 C
16 03-11-2020 01:15:00 11.4 C 88 % 9.49 C
17 03-11-2020 01:20:00 11.4 C 88 % 9.49 C
18 03-11-2020 01:25:00 11.4 C 87 % 9.32 C
19 03-11-2020 01:30:00 11.4 C 87 % 9.32 C
20 03-11-2020 01:35:00 11.4 C 87 % 9.32 C
21 03-11-2020 01:40:00 11.4 C 87 % 9.32 C
22 03-11-2020 01:45:00 11.4 C 87 % 9.32 C
23 03-11-2020 01:50:00 11.3 C 87 % 9.22 C
24 03-11-2020 01:55:00 11.3 C 87 % 9.22 C
25 03-11-2020 02:00:00 11.3 C 87 % 9.22 C
Sensor: Nr:Datum:Temp:Feuchte:Taupunkt:
Aussen-T/F 26 03-11-2020 02:05:00 11.3 C 87 % 9.22 C
27 03-11-2020 02:10:00 11.3 C 87 % 9.22 C
28 03-11-2020 02:15:00 11.3 C 87 % 9.22 C
29 03-11-2020 02:20:00 11.3 C 87 % 9.22 C
30 03-11-2020 02:25:00 11.2 C 87 % 9.12 C
31 03-11-2020 02:30:00 11.2 C 87 % 9.12 C
32 03-11-2020 02:35:00 11.2 C 86 % 8.95 C
33 03-11-2020 02:40:00 11.3 C 86 % 9.05 C
34 03-11-2020 02:45:00 11.3 C 86 % 9.05 C
35 03-11-2020 02:50:00 11.3 C 86 % 9.05 C
36 03-11-2020 02:55:00 11.3 C 87 % 9.22 C
37 03-11-2020 03:00:00 11.3 C 86 % 9.05 C
38 03-11-2020 03:05:00 11.3 C 86 % 9.05 C
39 03-11-2020 03:10:00 11.4 C 85 % 8.97 C
40 03-11-2020 03:15:00 11.4 C 85 % 8.97 C
41 03-11-2020 03:20:00 11.4 C 85 % 8.97 C
42 03-11-2020 03:25:00 11.5 C 85 % 9.07 C
43 03-11-2020 03:30:00 11.6 C 84 % 8.99 C
44 03-11-2020 03:35:00 11.6 C 84 % 8.99 C
45 03-11-2020 03:40:00 11.6 C 84 % 8.99 C
46 03-11-2020 03:45:00 11.6 C 84 % 8.99 C
47 03-11-2020 03:50:00 11.6 C 85 % 9.17 C
48 03-11-2020 03:55:00 11.5 C 85 % 9.07 C
49 03-11-2020 04:00:00 11.4 C 85 % 8.97 C
50 03-11-2020 04:05:00 11.4 C 85 % 8.97 C
Sensor: Nr:Datum:Temp:Feuchte:Taupunkt:
Aussen-T/F 51 03-11-2020 04:10:00 11.4 C 85 % 8.97 C
52 03-11-2020 04:15:00 11.3 C 86 % 9.05 C
53 03-11-2020 04:20:00 11.3 C 86 % 9.05 C
54 03-11-2020 04:25:00 11.3 C 86 % 9.05 C
55 03-11-2020 04:30:00 11.3 C 85 % 8.87 C
56 03-11-2020 04:35:00 11.3 C 85 % 8.87 C
57 03-11-2020 04:40:00 11.3 C 85 % 8.87 C
58 03-11-2020 04:45:00 11.3 C 85 % 8.87 C
59 03-11-2020 04:50:00 11.3 C 85 % 8.87 C
60 03-11-2020 04:55:00 11.2 C 86 % 8.95 C
61 03-11-2020 05:00:00 11.2 C 86 % 8.95 C
62 03-11-2020 05:05:00 11.2 C 85 % 8.77 C
63 03-11-2020 05:10:00 11.1 C 86 % 8.85 C
64 03-11-2020 05:15:00 11.1 C 86 % 8.85 C
65 03-11-2020 05:20:00 11 C 86 % 8.75 C
66 03-11-2020 05:25:00 11 C 86 % 8.75 C
67 03-11-2020 05:30:00 10.9 C 86 % 8.65 C
68 03-11-2020 05:35:00 10.9 C 86 % 8.65 C
69 03-11-2020 05:40:00 10.9 C 86 % 8.65 C
70 03-11-2020 05:45:00 10.9 C 86 % 8.65 C
71 03-11-2020 05:50:00 10.9 C 86 % 8.65 C
72 03-11-2020 05:55:00 10.9 C 85 % 8.48 C
73 03-11-2020 06:00:00 10.8 C 85 % 8.38 C
74 03-11-2020 06:05:00 10.8 C 85 % 8.38 C
75 03-11-2020 06:10:00 10.8 C 85 % 8.38 C
Sensor: Nr:Datum:Temp:Feuchte:Taupunkt:
Aussen-T/F 76 03-11-2020 06:15:00 10.8 C 85 % 8.38 C
77 03-11-2020 06:20:00 10.8 C 85 % 8.38 C
78 03-11-2020 06:25:00 10.8 C 86 % 8.56 C
79 03-11-2020 06:30:00 10.7 C 85 % 8.28 C
80 03-11-2020 06:35:00 10.7 C 86 % 8.46 C
81 03-11-2020 06:40:00 10.7 C 86 % 8.46 C
82 03-11-2020 06:45:00 10.6 C 86 % 8.36 C
83 03-11-2020 06:50:00 10.6 C 86 % 8.36 C
84 03-11-2020 06:55:00 10.5 C 86 % 8.26 C
85 03-11-2020 07:00:00 10.5 C 86 % 8.26 C
86 03-11-2020 07:05:00 10.4 C 86 % 8.16 C
87 03-11-2020 07:10:00 10.4 C 86 % 8.16 C
88 03-11-2020 07:15:00 10.3 C 86 % 8.06 C
89 03-11-2020 07:20:00 10.3 C 86 % 8.06 C
90 03-11-2020 07:25:00 10.3 C 86 % 8.06 C
91 03-11-2020 07:30:00 10.3 C 87 % 8.23 C
92 03-11-2020 07:35:00 10.2 C 87 % 8.14 C
93 03-11-2020 07:40:00 10.2 C 86 % 7.97 C
94 03-11-2020 07:45:00 10.1 C 87 % 8.04 C
95 03-11-2020 07:50:00 10 C 87 % 7.94 C
96 03-11-2020 07:55:00 9.9 C 87 % 7.84 C
97 03-11-2020 08:00:00 9.8 C 88 % 7.91 C
98 03-11-2020 08:05:00 9.7 C 88 % 7.81 C
99 03-11-2020 08:10:00 9.7 C 88 % 7.81 C
100 03-11-2020 08:15:00 9.6 C 89 % 7.88 C
Sensor: Nr:Datum:Temp:Feuchte:Taupunkt:
Aussen-T/F 101 03-11-2020 08:20:00 9.5 C 89 % 7.78 C
102 03-11-2020 08:25:00 9.4 C 89 % 7.68 C
103 03-11-2020 08:30:00 9.4 C 89 % 7.68 C
104 03-11-2020 08:35:00 9.4 C 90 % 7.85 C
105 03-11-2020 08:40:00 9.3 C 90 % 7.75 C
106 03-11-2020 08:45:00 9.3 C 90 % 7.75 C
107 03-11-2020 08:50:00 9.3 C 90 % 7.75 C
108 03-11-2020 08:55:00 9.2 C 90 % 7.65 C
109 03-11-2020 09:00:00 9.2 C 91 % 7.81 C
110 03-11-2020 09:05:00 9.2 C 91 % 7.81 C
111 03-11-2020 09:10:00 9.2 C 91 % 7.81 C
112 03-11-2020 09:15:00 9.2 C 91 % 7.81 C
113 03-11-2020 09:20:00 9.1 C 91 % 7.71 C
114 03-11-2020 09:25:00 9.1 C 92 % 7.87 C
115 03-11-2020 09:30:00 9.1 C 92 % 7.87 C
116 03-11-2020 09:35:00 9.1 C 92 % 7.87 C
117 03-11-2020 09:40:00 9.1 C 92 % 7.87 C
118 03-11-2020 09:45:00 9.1 C 92 % 7.87 C
119 03-11-2020 09:50:00 9.1 C 92 % 7.87 C
120 03-11-2020 09:55:00 9.1 C 92 % 7.87 C
121 03-11-2020 10:00:00 9.2 C 92 % 7.97 C
122 03-11-2020 10:05:00 9.2 C 93 % 8.13 C
123 03-11-2020 10:10:00 9.3 C 93 % 8.23 C
124 03-11-2020 10:15:00 9.3 C 92 % 8.07 C
125 03-11-2020 10:20:00 9.4 C 92 % 8.17 C
Sensor: Nr:Datum:Temp:Feuchte:Taupunkt:
Aussen-T/F 126 03-11-2020 10:25:00 9.4 C 92 % 8.17 C
127 03-11-2020 10:30:00 9.5 C 92 % 8.27 C
128 03-11-2020 10:35:00 9.6 C 92 % 8.37 C
129 03-11-2020 10:40:00 9.7 C 92 % 8.46 C
130 03-11-2020 10:45:00 9.9 C 91 % 8.5 C
131 03-11-2020 10:50:00 10.1 C 90 % 8.54 C
132 03-11-2020 10:55:00 10.2 C 89 % 8.47 C
133 03-11-2020 11:00:00 10.3 C 89 % 8.57 C
134 03-11-2020 11:05:00 10.4 C 89 % 8.67 C
135 03-11-2020 11:10:00 10.4 C 88 % 8.5 C
136 03-11-2020 11:15:00 10.6 C 88 % 8.7 C
137 03-11-2020 11:20:00 10.8 C 87 % 8.73 C
138 03-11-2020 11:25:00 10.9 C 85 % 8.48 C
139 03-11-2020 11:30:00 11.1 C 85 % 8.68 C
140 03-11-2020 11:35:00 11.2 C 84 % 8.6 C
141 03-11-2020 11:40:00 11.3 C 83 % 8.52 C
142 03-11-2020 11:45:00 11.6 C 83 % 8.81 C
143 03-11-2020 11:50:00 11.7 C 82 % 8.73 C
144 03-11-2020 11:55:00 11.8 C 81 % 8.65 C
145 03-11-2020 12:00:00 11.8 C 81 % 8.65 C
146 03-11-2020 12:05:00 11.9 C 81 % 8.75 C
147 03-11-2020 12:10:00 12 C 80 % 8.66 C
148 03-11-2020 12:15:00 12 C 79 % 8.48 C
149 03-11-2020 12:20:00 12 C 80 % 8.66 C
150 03-11-2020 12:25:00 12.1 C 80 % 8.76 C
Sensor: Nr:Datum:Temp:Feuchte:Taupunkt:
Aussen-T/F 151 03-11-2020 12:30:00 12.1 C 80 % 8.76 C
152 03-11-2020 12:35:00 12.2 C 79 % 8.67 C
153 03-11-2020 12:40:00 12.2 C 79 % 8.67 C
154 03-11-2020 12:45:00 12.2 C 80 % 8.86 C
155 03-11-2020 12:50:00 12.3 C 79 % 8.77 C
156 03-11-2020 12:55:00 12.3 C 78 % 8.58 C
157 03-11-2020 13:00:00 12.4 C 79 % 8.86 C
158 03-11-2020 13:05:00 12.5 C 79 % 8.96 C
159 03-11-2020 13:10:00 12.6 C 78 % 8.87 C
160 03-11-2020 13:15:00 12.6 C 76 % 8.49 C
161 03-11-2020 13:20:00 12.6 C 77 % 8.68 C
162 03-11-2020 13:25:00 12.6 C 75 % 8.29 C
163 03-11-2020 13:30:00 12.6 C 76 % 8.49 C
164 03-11-2020 13:35:00 12.7 C 76 % 8.58 C
165 03-11-2020 13:40:00 12.7 C 74 % 8.19 C
166 03-11-2020 13:45:00 12.7 C 74 % 8.19 C
167 03-11-2020 13:50:00 12.7 C 74 % 8.19 C
168 03-11-2020 13:55:00 12.7 C 74 % 8.19 C
169 03-11-2020 14:00:00 12.7 C 74 % 8.19 C
170 03-11-2020 14:05:00 12.6 C 74 % 8.09 C
171 03-11-2020 14:10:00 12.7 C 75 % 8.39 C
172 03-11-2020 14:15:00 12.6 C 74 % 8.09 C
173 03-11-2020 14:20:00 12.6 C 74 % 8.09 C
174 03-11-2020 14:25:00 12.6 C 74 % 8.09 C
175 03-11-2020 14:30:00 12.6 C 73 % 7.89 C
Sensor: Nr:Datum:Temp:Feuchte:Taupunkt:
Aussen-T/F 176 03-11-2020 14:35:00 12.6 C 74 % 8.09 C
177 03-11-2020 14:40:00 12.6 C 73 % 7.89 C
178 03-11-2020 14:45:00 12.7 C 73 % 7.99 C
179 03-11-2020 14:50:00 12.8 C 73 % 8.09 C
180 03-11-2020 14:55:00 12.8 C 73 % 8.09 C
181 03-11-2020 15:00:00 12.9 C 73 % 8.18 C
182 03-11-2020 15:05:00 12.9 C 73 % 8.18 C
183 03-11-2020 15:10:00 12.9 C 72 % 7.98 C
184 03-11-2020 15:15:00 12.9 C 72 % 7.98 C
185 03-11-2020 15:20:00 12.9 C 71 % 7.78 C
186 03-11-2020 15:25:00 12.9 C 71 % 7.78 C
187 03-11-2020 15:30:00 12.9 C 71 % 7.78 C
188 03-11-2020 15:35:00 12.8 C 72 % 7.88 C
189 03-11-2020 15:40:00 12.7 C 72 % 7.79 C
190 03-11-2020 15:45:00 12.6 C 72 % 7.69 C
191 03-11-2020 15:50:00 12.5 C 73 % 7.8 C
192 03-11-2020 15:55:00 12.5 C 74 % 8 C
193 03-11-2020 16:00:00 12.6 C 72 % 7.69 C
194 03-11-2020 16:05:00 12.6 C 72 % 7.69 C
195 03-11-2020 16:10:00 12.5 C 72 % 7.6 C
196 03-11-2020 16:15:00 12.4 C 72 % 7.5 C
197 03-11-2020 16:20:00 12.3 C 73 % 7.61 C
198 03-11-2020 16:25:00 12.3 C 72 % 7.4 C
199 03-11-2020 16:30:00 12.3 C 74 % 7.8 C
200 03-11-2020 16:35:00 12.2 C 73 % 7.51 C
Sensor: Nr:Datum:Temp:Feuchte:Taupunkt:
Aussen-T/F 201 03-11-2020 16:40:00 12.2 C 74 % 7.71 C
202 03-11-2020 16:45:00 12.2 C 75 % 7.91 C
203 03-11-2020 16:50:00 12.2 C 73 % 7.51 C
204 03-11-2020 16:55:00 12.2 C 75 % 7.91 C
205 03-11-2020 17:00:00 12.1 C 76 % 8 C
206 03-11-2020 17:05:00 12 C 73 % 7.32 C
207 03-11-2020 17:10:00 11.9 C 74 % 7.42 C
208 03-11-2020 17:15:00 11.9 C 76 % 7.81 C
209 03-11-2020 17:20:00 11.8 C 77 % 7.9 C
210 03-11-2020 17:25:00 11.7 C 79 % 8.18 C
211 03-11-2020 17:30:00 11.6 C 80 % 8.27 C
212 03-11-2020 17:35:00 11.4 C 80 % 8.08 C
213 03-11-2020 17:40:00 11.3 C 81 % 8.16 C
214 03-11-2020 17:45:00 11.2 C 82 % 8.25 C
215 03-11-2020 17:50:00 11.1 C 81 % 7.97 C
216 03-11-2020 17:55:00 11.1 C 79 % 7.6 C
217 03-11-2020 18:00:00 11.3 C 79 % 7.8 C
218 03-11-2020 18:05:00 11.3 C 82 % 8.34 C
219 03-11-2020 18:10:00 11.3 C 83 % 8.52 C
220 03-11-2020 18:15:00 11.1 C 85 % 8.68 C
221 03-11-2020 18:20:00 10.9 C 86 % 8.65 C
222 03-11-2020 18:25:00 10.8 C 87 % 8.73 C
223 03-11-2020 18:30:00 10.6 C 88 % 8.7 C
224 03-11-2020 18:35:00 10.5 C 88 % 8.6 C
225 03-11-2020 18:40:00 10.4 C 89 % 8.67 C
Sensor: Nr:Datum:Temp:Feuchte:Taupunkt:
Aussen-T/F 226 03-11-2020 18:45:00 10.3 C 89 % 8.57 C
227 03-11-2020 18:50:00 10.2 C 89 % 8.47 C
228 03-11-2020 18:55:00 9.9 C 89 % 8.17 C
229 03-11-2020 19:00:00 9.8 C 90 % 8.24 C
230 03-11-2020 19:05:00 9.6 C 90 % 8.04 C
231 03-11-2020 19:10:00 9.4 C 90 % 7.85 C
232 03-11-2020 19:15:00 9.3 C 90 % 7.75 C
233 03-11-2020 19:20:00 9.2 C 90 % 7.65 C
234 03-11-2020 19:25:00 9.1 C 91 % 7.71 C
235 03-11-2020 19:30:00 9 C 91 % 7.61 C
236 03-11-2020 19:35:00 8.8 C 91 % 7.41 C
237 03-11-2020 19:40:00 8.7 C 91 % 7.32 C
238 03-11-2020 19:45:00 8.6 C 91 % 7.22 C
239 03-11-2020 19:50:00 8.4 C 91 % 7.02 C
240 03-11-2020 19:55:00 8.3 C 92 % 7.08 C
241 03-11-2020 20:00:00 8.3 C 92 % 7.08 C
242 03-11-2020 20:05:00 8.2 C 92 % 6.98 C
243 03-11-2020 20:10:00 8 C 92 % 6.78 C
244 03-11-2020 20:15:00 7.9 C 92 % 6.68 C
245 03-11-2020 20:20:00 7.7 C 92 % 6.48 C
246 03-11-2020 20:25:00 7.7 C 92 % 6.48 C
247 03-11-2020 20:30:00 7.6 C 93 % 6.54 C
248 03-11-2020 20:35:00 7.5 C 93 % 6.44 C
249 03-11-2020 20:40:00 7.4 C 93 % 6.34 C
250 03-11-2020 20:45:00 7.4 C 93 % 6.34 C
Sensor: Nr:Datum:Temp:Feuchte:Taupunkt:
Aussen-T/F 251 03-11-2020 20:50:00 7.3 C 93 % 6.25 C
252 03-11-2020 20:55:00 7.3 C 93 % 6.25 C
253 03-11-2020 21:00:00 7.2 C 93 % 6.15 C
254 03-11-2020 21:05:00 7.1 C 93 % 6.05 C
255 03-11-2020 21:10:00 7 C 93 % 5.95 C
256 03-11-2020 21:15:00 6.9 C 93 % 5.85 C
257 03-11-2020 21:20:00 6.8 C 94 % 5.9 C
258 03-11-2020 21:25:00 6.8 C 94 % 5.9 C
259 03-11-2020 21:30:00 6.7 C 94 % 5.8 C
260 03-11-2020 21:35:00 6.7 C 94 % 5.8 C
261 03-11-2020 21:40:00 6.7 C 94 % 5.8 C
262 03-11-2020 21:45:00 6.7 C 94 % 5.8 C
263 03-11-2020 21:50:00 6.8 C 94 % 5.9 C
264 03-11-2020 21:55:00 6.8 C 95 % 6.06 C
265 03-11-2020 22:00:00 6.8 C 94 % 5.9 C
266 03-11-2020 22:05:00 6.7 C 94 % 5.8 C
267 03-11-2020 22:10:00 6.6 C 94 % 5.71 C
268 03-11-2020 22:15:00 6.4 C 94 % 5.51 C
269 03-11-2020 22:20:00 6.3 C 94 % 5.41 C
270 03-11-2020 22:25:00 6.2 C 94 % 5.31 C
271 03-11-2020 22:30:00 6.1 C 94 % 5.21 C
272 03-11-2020 22:35:00 6.1 C 94 % 5.21 C
273 03-11-2020 22:40:00 6 C 94 % 5.11 C
274 03-11-2020 22:45:00 5.9 C 95 % 5.16 C
275 03-11-2020 22:50:00 5.9 C 95 % 5.16 C
Sensor: Nr:Datum:Temp:Feuchte:Taupunkt:
Aussen-T/F 276 03-11-2020 22:55:00 5.9 C 95 % 5.16 C
277 03-11-2020 23:00:00 5.9 C 95 % 5.16 C
278 03-11-2020 23:05:00 5.9 C 95 % 5.16 C
279 03-11-2020 23:10:00 5.9 C 95 % 5.16 C
280 03-11-2020 23:15:00 5.9 C 95 % 5.16 C
281 03-11-2020 23:20:00 6 C 95 % 5.26 C
282 03-11-2020 23:25:00 6 C 95 % 5.26 C
283 03-11-2020 23:30:00 6 C 95 % 5.26 C
284 03-11-2020 23:35:00 5.9 C 95 % 5.16 C
285 03-11-2020 23:40:00 5.9 C 95 % 5.16 C
286 03-11-2020 23:45:00 5.8 C 95 % 5.06 C
287 03-11-2020 23:50:00 5.7 C 95 % 4.96 C
288 03-11-2020 23:55:00 5.6 C 95 % 4.86 C
289 04-11-2020 00:00:00 5.4 C 95 % 4.66 C
290 04-11-2020 00:05:00 5.3 C 95 % 4.57 C
291 04-11-2020 00:10:00 5.3 C 95 % 4.57 C
292 04-11-2020 00:15:00 5.3 C 95 % 4.57 C
293 04-11-2020 00:20:00 5.2 C 95 % 4.47 C
294 04-11-2020 00:25:00 5.1 C 95 % 4.37 C
295 04-11-2020 00:30:00 5.1 C 95 % 4.37 C
296 04-11-2020 00:35:00 5 C 95 % 4.27 C
297 04-11-2020 00:40:00 4.9 C 95 % 4.17 C
298 04-11-2020 00:45:00 4.8 C 95 % 4.07 C
299 04-11-2020 00:50:00 4.8 C 95 % 4.07 C
300 04-11-2020 00:55:00 4.8 C 95 % 4.07 C
Sensor: Nr:Datum:Temp:Feuchte:Taupunkt:
Aussen-T/F 301 04-11-2020 01:00:00 4.8 C 95 % 4.07 C
302 04-11-2020 01:05:00 4.8 C 95 % 4.07 C
303 04-11-2020 01:10:00 4.8 C 95 % 4.07 C
304 04-11-2020 01:15:00 4.9 C 95 % 4.17 C
305 04-11-2020 01:20:00 4.9 C 95 % 4.17 C
306 04-11-2020 01:25:00 5 C 95 % 4.27 C
307 04-11-2020 01:30:00 5.1 C 96 % 4.52 C
308 04-11-2020 01:35:00 5.1 C 96 % 4.52 C
309 04-11-2020 01:40:00 5.2 C 96 % 4.62 C
310 04-11-2020 01:45:00 5.2 C 96 % 4.62 C
311 04-11-2020 01:50:00 5.3 C 96 % 4.72 C
312 04-11-2020 01:55:00 5.3 C 96 % 4.72 C
313 04-11-2020 02:00:00 5.4 C 96 % 4.81 C
314 04-11-2020 02:05:00 5.4 C 96 % 4.81 C
315 04-11-2020 02:10:00 5.4 C 96 % 4.81 C
316 04-11-2020 02:15:00 5.3 C 95 % 4.57 C
317 04-11-2020 02:20:00 5.1 C 95 % 4.37 C
318 04-11-2020 02:25:00 4.9 C 95 % 4.17 C
319 04-11-2020 02:30:00 4.8 C 95 % 4.07 C
320 04-11-2020 02:35:00 4.7 C 95 % 3.97 C
321 04-11-2020 02:40:00 4.7 C 95 % 3.97 C
322 04-11-2020 02:45:00 4.7 C 95 % 3.97 C
323 04-11-2020 02:50:00 4.7 C 96 % 4.12 C
324 04-11-2020 02:55:00 4.8 C 96 % 4.22 C
325 04-11-2020 03:00:00 4.7 C 96 % 4.12 C
Sensor: Nr:Datum:Temp:Feuchte:Taupunkt:
Aussen-T/F 326 04-11-2020 03:05:00 4.6 C 95 % 3.87 C
327 04-11-2020 03:10:00 4.5 C 95 % 3.77 C
328 04-11-2020 03:15:00 4.4 C 95 % 3.67 C
329 04-11-2020 03:20:00 4.3 C 95 % 3.57 C
330 04-11-2020 03:25:00 4.3 C 95 % 3.57 C
331 04-11-2020 03:30:00 4.2 C 95 % 3.47 C
332 04-11-2020 03:35:00 4.2 C 96 % 3.62 C
333 04-11-2020 03:40:00 4.2 C 96 % 3.62 C
334 04-11-2020 03:45:00 4.2 C 96 % 3.62 C
335 04-11-2020 03:50:00 4.2 C 96 % 3.62 C
336 04-11-2020 03:55:00 4.1 C 95 % 3.37 C
337 04-11-2020 04:00:00 3.9 C 95 % 3.17 C
338 04-11-2020 04:05:00 3.9 C 95 % 3.17 C
339 04-11-2020 04:10:00 4.1 C 96 % 3.52 C
340 04-11-2020 04:15:00 4 C 96 % 3.42 C
341 04-11-2020 04:20:00 3.9 C 96 % 3.32 C
342 04-11-2020 04:25:00 3.8 C 96 % 3.22 C
343 04-11-2020 04:30:00 3.6 C 95 % 2.88 C
344 04-11-2020 04:35:00 3.6 C 95 % 2.88 C
345 04-11-2020 04:40:00 3.6 C 96 % 3.02 C
346 04-11-2020 04:45:00 3.6 C 96 % 3.02 C
347 04-11-2020 04:50:00 3.5 C 96 % 2.92 C
348 04-11-2020 04:55:00 3.4 C 96 % 2.82 C
349 04-11-2020 05:00:00 3.3 C 95 % 2.58 C
350 04-11-2020 05:05:00 3.3 C 95 % 2.58 C
Sensor: Nr:Datum:Temp:Feuchte:Taupunkt:
Aussen-T/F 351 04-11-2020 05:10:00 3.3 C 96 % 2.72 C
352 04-11-2020 05:15:00 3.3 C 96 % 2.72 C
353 04-11-2020 05:20:00 3.3 C 96 % 2.72 C
354 04-11-2020 05:25:00 3.2 C 96 % 2.63 C
355 04-11-2020 05:30:00 3.1 C 96 % 2.53 C
356 04-11-2020 05:35:00 3.1 C 96 % 2.53 C
357 04-11-2020 05:40:00 3 C 96 % 2.43 C
358 04-11-2020 05:45:00 3 C 96 % 2.43 C
359 04-11-2020 05:50:00 2.9 C 96 % 2.33 C
360 04-11-2020 05:55:00 2.9 C 96 % 2.33 C
361 04-11-2020 06:00:00 2.8 C 96 % 2.23 C
362 04-11-2020 06:05:00 2.8 C 96 % 2.23 C
363 04-11-2020 06:10:00 2.9 C 96 % 2.33 C
364 04-11-2020 06:15:00 2.9 C 96 % 2.33 C
365 04-11-2020 06:20:00 2.9 C 96 % 2.33 C
366 04-11-2020 06:25:00 2.8 C 96 % 2.23 C
367 04-11-2020 06:30:00 2.8 C 96 % 2.23 C
368 04-11-2020 06:35:00 2.8 C 96 % 2.23 C
369 04-11-2020 06:40:00 2.8 C 96 % 2.23 C
370 04-11-2020 06:45:00 2.7 C 96 % 2.13 C
371 04-11-2020 06:50:00 2.7 C 96 % 2.13 C
372 04-11-2020 06:55:00 2.7 C 96 % 2.13 C
373 04-11-2020 07:00:00 2.8 C 96 % 2.23 C
374 04-11-2020 07:05:00 2.9 C 96 % 2.33 C
375 04-11-2020 07:10:00 2.8 C 96 % 2.23 C
Sensor: Nr:Datum:Temp:Feuchte:Taupunkt:
Aussen-T/F 376 04-11-2020 07:15:00 2.7 C 96 % 2.13 C
377 04-11-2020 07:20:00 2.6 C 96 % 2.03 C
378 04-11-2020 07:25:00 2.5 C 96 % 1.93 C
379 04-11-2020 07:30:00 2.4 C 96 % 1.83 C
380 04-11-2020 07:35:00 2.4 C 96 % 1.83 C
381 04-11-2020 07:40:00 2.3 C 96 % 1.73 C
382 04-11-2020 07:45:00 2.4 C 96 % 1.83 C
383 04-11-2020 07:50:00 2.4 C 96 % 1.83 C
384 04-11-2020 07:55:00 2.3 C 96 % 1.73 C
385 04-11-2020 08:00:00 2.3 C 96 % 1.73 C
386 04-11-2020 08:05:00 2.2 C 96 % 1.63 C
387 04-11-2020 08:10:00 2.2 C 96 % 1.63 C
388 04-11-2020 08:15:00 2.3 C 96 % 1.73 C
389 04-11-2020 08:20:00 2.4 C 96 % 1.83 C
390 04-11-2020 08:25:00 2.5 C 96 % 1.93 C
391 04-11-2020 08:30:00 2.6 C 96 % 2.03 C
392 04-11-2020 08:35:00 2.6 C 96 % 2.03 C
393 04-11-2020 08:40:00 2.6 C 96 % 2.03 C
394 04-11-2020 08:45:00 2.7 C 96 % 2.13 C
395 04-11-2020 08:50:00 2.8 C 97 % 2.37 C
396 04-11-2020 08:55:00 2.9 C 97 % 2.47 C
397 04-11-2020 09:00:00 2.9 C 96 % 2.33 C
398 04-11-2020 09:05:00 3 C 96 % 2.43 C
399 04-11-2020 09:10:00 3.1 C 96 % 2.53 C
400 04-11-2020 09:15:00 3.2 C 97 % 2.77 C
Sensor: Nr:Datum:Temp:Feuchte:Taupunkt:
Aussen-T/F 401 04-11-2020 09:20:00 3.2 C 97 % 2.77 C
402 04-11-2020 09:25:00 3.2 C 97 % 2.77 C
403 04-11-2020 09:30:00 3.2 C 97 % 2.77 C
404 04-11-2020 09:35:00 3.2 C 97 % 2.77 C
405 04-11-2020 09:40:00 3.2 C 97 % 2.77 C
406 04-11-2020 09:45:00 3.1 C 96 % 2.53 C
407 04-11-2020 09:50:00 3.1 C 96 % 2.53 C
408 04-11-2020 09:55:00 3.2 C 97 % 2.77 C
409 04-11-2020 10:00:00 3.2 C 97 % 2.77 C
410 04-11-2020 10:05:00 3.2 C 97 % 2.77 C
411 04-11-2020 10:10:00 3.3 C 96 % 2.72 C
412 04-11-2020 10:15:00 3.3 C 96 % 2.72 C
413 04-11-2020 10:20:00 3.3 C 96 % 2.72 C
414 04-11-2020 10:25:00 3.4 C 96 % 2.82 C
415 04-11-2020 10:30:00 3.5 C 97 % 3.07 C
416 04-11-2020 10:35:00 3.6 C 97 % 3.17 C
417 04-11-2020 10:40:00 3.7 C 97 % 3.27 C
418 04-11-2020 10:45:00 3.8 C 97 % 3.37 C
419 04-11-2020 10:50:00 3.9 C 97 % 3.47 C
420 04-11-2020 10:55:00 4.1 C 97 % 3.67 C
421 04-11-2020 11:00:00 4.2 C 97 % 3.77 C
422 04-11-2020 11:05:00 4.3 C 97 % 3.87 C
423 04-11-2020 11:10:00 4.4 C 97 % 3.97 C
424 04-11-2020 11:15:00 4.5 C 97 % 4.07 C
425 04-11-2020 11:20:00 4.6 C 97 % 4.17 C
Sensor: Nr:Datum:Temp:Feuchte:Taupunkt:
Aussen-T/F 426 04-11-2020 11:25:00 4.8 C 97 % 4.37 C
427 04-11-2020 11:30:00 4.9 C 97 % 4.46 C
428 04-11-2020 11:35:00 5 C 97 % 4.56 C
429 04-11-2020 11:40:00 5.1 C 97 % 4.66 C
430 04-11-2020 11:45:00 5.2 C 97 % 4.76 C
431 04-11-2020 11:50:00 5.3 C 97 % 4.86 C
432 04-11-2020 11:55:00 5.4 C 97 % 4.96 C
433 04-11-2020 12:00:00 5.5 C 97 % 5.06 C
434 04-11-2020 12:05:00 5.6 C 97 % 5.16 C
435 04-11-2020 12:10:00 5.7 C 97 % 5.26 C
436 04-11-2020 12:15:00 5.8 C 97 % 5.36 C
437 04-11-2020 12:20:00 5.8 C 97 % 5.36 C
438 04-11-2020 12:25:00 5.9 C 97 % 5.46 C
439 04-11-2020 12:30:00 5.9 C 97 % 5.46 C
440 04-11-2020 12:35:00 6 C 97 % 5.56 C
441 04-11-2020 12:40:00 6.1 C 97 % 5.66 C
442 04-11-2020 12:45:00 6.2 C 97 % 5.76 C
443 04-11-2020 12:50:00 6.2 C 97 % 5.76 C
444 04-11-2020 12:55:00 6.3 C 97 % 5.86 C
445 04-11-2020 13:00:00 6.3 C 97 % 5.86 C
446 04-11-2020 13:05:00 6.3 C 97 % 5.86 C
447 04-11-2020 13:10:00 6.4 C 97 % 5.96 C
448 04-11-2020 13:15:00 6.4 C 97 % 5.96 C
449 04-11-2020 13:20:00 6.5 C 97 % 6.06 C
450 04-11-2020 13:25:00 6.6 C 97 % 6.16 C
Sensor: Nr:Datum:Temp:Feuchte:Taupunkt:
Aussen-T/F 451 04-11-2020 13:30:00 6.7 C 97 % 6.26 C
452 04-11-2020 13:35:00 6.8 C 97 % 6.36 C
453 04-11-2020 13:40:00 6.9 C 97 % 6.46 C
454 04-11-2020 13:45:00 7 C 97 % 6.56 C
455 04-11-2020 13:50:00 7.1 C 97 % 6.66 C
456 04-11-2020 13:55:00 7.2 C 97 % 6.76 C
457 04-11-2020 14:00:00 7.2 C 97 % 6.76 C
458 04-11-2020 14:05:00 7.3 C 97 % 6.86 C
459 04-11-2020 14:10:00 7.4 C 97 % 6.96 C
460 04-11-2020 14:15:00 7.5 C 97 % 7.06 C
461 04-11-2020 14:20:00 7.7 C 97 % 7.25 C
462 04-11-2020 14:25:00 7.8 C 97 % 7.35 C
463 04-11-2020 14:30:00 7.8 C 97 % 7.35 C
464 04-11-2020 14:35:00 7.8 C 97 % 7.35 C
465 04-11-2020 14:40:00 7.8 C 97 % 7.35 C
466 04-11-2020 14:45:00 7.8 C 97 % 7.35 C
467 04-11-2020 14:50:00 7.8 C 96 % 7.2 C
468 04-11-2020 14:55:00 7.8 C 96 % 7.2 C
469 04-11-2020 15:00:00 7.8 C 96 % 7.2 C
470 04-11-2020 15:05:00 7.9 C 96 % 7.3 C
471 04-11-2020 15:10:00 7.9 C 95 % 7.15 C
472 04-11-2020 15:15:00 8.1 C 94 % 7.19 C
473 04-11-2020 15:20:00 8.3 C 93 % 7.24 C
474 04-11-2020 15:25:00 8.4 C 93 % 7.34 C
475 04-11-2020 15:30:00 8.4 C 93 % 7.34 C
Sensor: Nr:Datum:Temp:Feuchte:Taupunkt:
Aussen-T/F 476 04-11-2020 15:35:00 8.3 C 92 % 7.08 C
477 04-11-2020 15:40:00 8.3 C 92 % 7.08 C
478 04-11-2020 15:45:00 8.3 C 92 % 7.08 C
479 04-11-2020 15:50:00 8.2 C 92 % 6.98 C
480 04-11-2020 15:55:00 8.1 C 92 % 6.88 C
481 04-11-2020 16:00:00 8.1 C 92 % 6.88 C
482 04-11-2020 16:05:00 8 C 92 % 6.78 C
483 04-11-2020 16:10:00 7.9 C 92 % 6.68 C
484 04-11-2020 16:15:00 7.9 C 92 % 6.68 C
485 04-11-2020 16:20:00 7.8 C 92 % 6.58 C
486 04-11-2020 16:25:00 7.7 C 92 % 6.48 C
487 04-11-2020 16:30:00 7.6 C 91 % 6.23 C
488 04-11-2020 16:35:00 7.4 C 91 % 6.03 C
489 04-11-2020 16:40:00 7.3 C 91 % 5.93 C
490 04-11-2020 16:45:00 7.2 C 91 % 5.83 C
491 04-11-2020 16:50:00 7.1 C 91 % 5.73 C
492 04-11-2020 16:55:00 7 C 92 % 5.79 C
493 04-11-2020 17:00:00 6.9 C 92 % 5.69 C
494 04-11-2020 17:05:00 6.8 C 92 % 5.59 C
495 04-11-2020 17:10:00 6.8 C 91 % 5.44 C
496 04-11-2020 17:15:00 6.7 C 91 % 5.34 C
497 04-11-2020 17:20:00 6.6 C 92 % 5.4 C
498 04-11-2020 17:25:00 6.4 C 91 % 5.04 C
499 04-11-2020 17:30:00 6.3 C 92 % 5.1 C
500 04-11-2020 17:35:00 6.2 C 92 % 5 C
Sensor: Nr:Datum:Temp:Feuchte:Taupunkt:
Aussen-T/F 501 04-11-2020 17:40:00 6.1 C 92 % 4.9 C
502 04-11-2020 17:45:00 6 C 92 % 4.8 C
503 04-11-2020 17:50:00 5.9 C 92 % 4.7 C
504 04-11-2020 17:55:00 5.8 C 92 % 4.6 C
505 04-11-2020 18:00:00 5.7 C 92 % 4.5 C
506 04-11-2020 18:05:00 5.7 C 92 % 4.5 C
507 04-11-2020 18:10:00 5.6 C 92 % 4.41 C
508 04-11-2020 18:15:00 5.4 C 92 % 4.21 C
509 04-11-2020 18:20:00 5.3 C 92 % 4.11 C
510 04-11-2020 18:25:00 5.3 C 93 % 4.26 C
511 04-11-2020 18:30:00 5.2 C 93 % 4.16 C
512 04-11-2020 18:35:00 5.2 C 93 % 4.16 C
513 04-11-2020 18:40:00 5.1 C 93 % 4.06 C
514 04-11-2020 18:45:00 5.1 C 93 % 4.06 C
515 04-11-2020 18:50:00 4.9 C 93 % 3.87 C
516 04-11-2020 18:55:00 4.9 C 93 % 3.87 C
517 04-11-2020 19:00:00 4.9 C 93 % 3.87 C
518 04-11-2020 19:05:00 4.9 C 93 % 3.87 C
519 04-11-2020 19:10:00 4.8 C 94 % 3.92 C
520 04-11-2020 19:15:00 4.7 C 94 % 3.82 C
521 04-11-2020 19:20:00 4.6 C 94 % 3.72 C
522 04-11-2020 19:25:00 4.6 C 94 % 3.72 C
523 04-11-2020 19:30:00 4.4 C 93 % 3.37 C
524 04-11-2020 19:35:00 4.3 C 94 % 3.42 C
525 04-11-2020 19:40:00 4.2 C 93 % 3.17 C
Sensor: Nr:Datum:Temp:Feuchte:Taupunkt:
Aussen-T/F 526 04-11-2020 19:45:00 4.1 C 94 % 3.22 C
527 04-11-2020 19:50:00 4 C 94 % 3.12 C
528 04-11-2020 19:55:00 3.9 C 94 % 3.02 C
529 04-11-2020 20:00:00 3.8 C 94 % 2.93 C
530 04-11-2020 20:05:00 3.8 C 94 % 2.93 C
531 04-11-2020 20:10:00 3.7 C 94 % 2.83 C
532 04-11-2020 20:15:00 3.7 C 94 % 2.83 C
533 04-11-2020 20:20:00 3.7 C 94 % 2.83 C
534 04-11-2020 20:25:00 3.6 C 94 % 2.73 C
535 04-11-2020 20:30:00 3.6 C 94 % 2.73 C
536 04-11-2020 20:35:00 3.5 C 94 % 2.63 C
537 04-11-2020 20:40:00 3.4 C 94 % 2.53 C
538 04-11-2020 20:45:00 3.4 C 95 % 2.68 C
539 04-11-2020 20:50:00 3.4 C 95 % 2.68 C
540 04-11-2020 20:55:00 3.3 C 95 % 2.58 C
541 04-11-2020 21:00:00 3.3 C 95 % 2.58 C
542 04-11-2020 21:05:00 3.3 C 95 % 2.58 C
543 04-11-2020 21:10:00 3.2 C 95 % 2.48 C
544 04-11-2020 21:15:00 3.1 C 95 % 2.38 C
545 04-11-2020 21:20:00 3.1 C 95 % 2.38 C
546 04-11-2020 21:25:00 3 C 95 % 2.28 C
547 04-11-2020 21:30:00 2.9 C 95 % 2.18 C
548 04-11-2020 21:35:00 2.9 C 95 % 2.18 C
549 04-11-2020 21:40:00 2.9 C 95 % 2.18 C
550 04-11-2020 21:45:00 3 C 95 % 2.28 C
Sensor: Nr:Datum:Temp:Feuchte:Taupunkt:
Aussen-T/F 551 04-11-2020 21:50:00 2.9 C 95 % 2.18 C
552 04-11-2020 21:55:00 2.9 C 95 % 2.18 C
553 04-11-2020 22:00:00 2.8 C 95 % 2.08 C
554 04-11-2020 22:05:00 2.8 C 95 % 2.08 C
555 04-11-2020 22:10:00 2.7 C 95 % 1.98 C
556 04-11-2020 22:15:00 2.7 C 95 % 1.98 C
557 04-11-2020 22:20:00 2.6 C 95 % 1.88 C
558 04-11-2020 22:25:00 2.6 C 95 % 1.88 C
559 04-11-2020 22:30:00 2.6 C 95 % 1.88 C
560 04-11-2020 22:35:00 2.5 C 95 % 1.78 C
561 04-11-2020 22:40:00 2.5 C 95 % 1.78 C
562 04-11-2020 22:45:00 2.4 C 95 % 1.68 C
563 04-11-2020 22:50:00 2.3 C 95 % 1.58 C
564 04-11-2020 22:55:00 2.3 C 95 % 1.58 C
565 04-11-2020 23:00:00 2.3 C 95 % 1.58 C
566 04-11-2020 23:05:00 2.2 C 95 % 1.48 C
567 04-11-2020 23:10:00 2.2 C 95 % 1.48 C
568 04-11-2020 23:15:00 2.2 C 95 % 1.48 C
569 04-11-2020 23:20:00 2.1 C 95 % 1.38 C
570 04-11-2020 23:25:00 2.1 C 95 % 1.38 C
571 04-11-2020 23:30:00 2.1 C 96 % 1.53 C
572 04-11-2020 23:35:00 2.1 C 95 % 1.38 C
573 04-11-2020 23:40:00 2.2 C 96 % 1.63 C
574 04-11-2020 23:45:00 2.1 C 96 % 1.53 C
575 04-11-2020 23:50:00 2.1 C 96 % 1.53 C
Sensor: Nr:Datum:Temp:Feuchte:Taupunkt:
Aussen-T/F 576 04-11-2020 23:55:00 2.1 C 96 % 1.53 C
577 05-11-2020 00:00:00 2 C 96 % 1.43 C
578 05-11-2020 00:05:00 1.9 C 96 % 1.33 C
579 05-11-2020 00:10:00 1.8 C 95 % 1.09 C
580 05-11-2020 00:15:00 1.8 C 95 % 1.09 C
581 05-11-2020 00:20:00 1.8 C 96 % 1.23 C
582 05-11-2020 00:25:00 1.8 C 96 % 1.23 C
583 05-11-2020 00:30:00 1.7 C 96 % 1.13 C
584 05-11-2020 00:35:00 1.7 C 96 % 1.13 C
585 05-11-2020 00:40:00 1.7 C 96 % 1.13 C
586 05-11-2020 00:45:00 1.7 C 96 % 1.13 C
587 05-11-2020 00:50:00 1.7 C 96 % 1.13 C
588 05-11-2020 00:55:00 1.7 C 96 % 1.13 C
589 05-11-2020 01:00:00 1.7 C 96 % 1.13 C
590 05-11-2020 01:05:00 1.6 C 96 % 1.03 C
591 05-11-2020 01:10:00 1.6 C 96 % 1.03 C
592 05-11-2020 01:15:00 1.5 C 96 % 0.93 C
593 05-11-2020 01:20:00 1.5 C 96 % 0.93 C
594 05-11-2020 01:25:00 1.6 C 96 % 1.03 C
595 05-11-2020 01:30:00 1.7 C 96 % 1.13 C
596 05-11-2020 01:35:00 1.8 C 96 % 1.23 C
597 05-11-2020 01:40:00 1.9 C 96 % 1.33 C
598 05-11-2020 01:45:00 2 C 96 % 1.43 C
599 05-11-2020 01:50:00 2.1 C 96 % 1.53 C
600 05-11-2020 01:55:00 2.1 C 96 % 1.53 C
Sensor: Nr:Datum:Temp:Feuchte:Taupunkt:
Aussen-T/F 601 05-11-2020 02:00:00 2.2 C 96 % 1.63 C
602 05-11-2020 02:05:00 2.2 C 96 % 1.63 C
603 05-11-2020 02:10:00 2.2 C 96 % 1.63 C
604 05-11-2020 02:15:00 2.2 C 96 % 1.63 C
605 05-11-2020 02:20:00 2.2 C 96 % 1.63 C
606 05-11-2020 02:25:00 2.2 C 96 % 1.63 C
607 05-11-2020 02:30:00 2.2 C 96 % 1.63 C
608 05-11-2020 02:35:00 2.2 C 96 % 1.63 C
609 05-11-2020 02:40:00 2.2 C 96 % 1.63 C
610 05-11-2020 02:45:00 2.2 C 96 % 1.63 C
611 05-11-2020 02:50:00 2.2 C 96 % 1.63 C
612 05-11-2020 02:55:00 2.2 C 96 % 1.63 C
613 05-11-2020 03:00:00 2.2 C 96 % 1.63 C
614 05-11-2020 03:05:00 2.2 C 96 % 1.63 C
615 05-11-2020 03:10:00 2.2 C 96 % 1.63 C
616 05-11-2020 03:15:00 2.1 C 96 % 1.53 C
617 05-11-2020 03:20:00 2.1 C 96 % 1.53 C
618 05-11-2020 03:25:00 2.1 C 96 % 1.53 C
619 05-11-2020 03:30:00 2.1 C 96 % 1.53 C
620 05-11-2020 03:35:00 2.1 C 96 % 1.53 C
621 05-11-2020 03:40:00 2.1 C 96 % 1.53 C
622 05-11-2020 03:45:00 2.1 C 96 % 1.53 C
623 05-11-2020 03:50:00 2 C 96 % 1.43 C
624 05-11-2020 03:55:00 2 C 96 % 1.43 C
625 05-11-2020 04:00:00 2 C 96 % 1.43 C
Sensor: Nr:Datum:Temp:Feuchte:Taupunkt:
Aussen-T/F 626 05-11-2020 04:05:00 2 C 96 % 1.43 C
627 05-11-2020 04:10:00 2 C 96 % 1.43 C
628 05-11-2020 04:15:00 2.1 C 96 % 1.53 C
629 05-11-2020 04:20:00 2 C 96 % 1.43 C
630 05-11-2020 04:25:00 2.1 C 96 % 1.53 C
631 05-11-2020 04:30:00 2.1 C 97 % 1.67 C
632 05-11-2020 04:35:00 2.1 C 97 % 1.67 C
633 05-11-2020 04:40:00 2.1 C 97 % 1.67 C
634 05-11-2020 04:45:00 2.2 C 97 % 1.77 C
635 05-11-2020 04:50:00 2.2 C 97 % 1.77 C
636 05-11-2020 04:55:00 2.2 C 97 % 1.77 C
637 05-11-2020 05:00:00 2.2 C 97 % 1.77 C
638 05-11-2020 05:05:00 2.2 C 97 % 1.77 C
639 05-11-2020 05:10:00 2.2 C 97 % 1.77 C
640 05-11-2020 05:15:00 2.3 C 97 % 1.87 C
641 05-11-2020 05:20:00 2.2 C 97 % 1.77 C
642 05-11-2020 05:25:00 2.2 C 97 % 1.77 C
643 05-11-2020 05:30:00 2.2 C 97 % 1.77 C
644 05-11-2020 05:35:00 2.2 C 97 % 1.77 C
645 05-11-2020 05:40:00 2.3 C 97 % 1.87 C
646 05-11-2020 05:45:00 2.3 C 97 % 1.87 C
647 05-11-2020 05:50:00 2.3 C 97 % 1.87 C
648 05-11-2020 05:55:00 2.3 C 97 % 1.87 C
649 05-11-2020 06:00:00 2.3 C 97 % 1.87 C
650 05-11-2020 06:05:00 2.3 C 97 % 1.87 C
Sensor: Nr:Datum:Temp:Feuchte:Taupunkt:
Aussen-T/F 651 05-11-2020 06:10:00 2.3 C 97 % 1.87 C
652 05-11-2020 06:15:00 2.3 C 97 % 1.87 C
653 05-11-2020 06:20:00 2.3 C 97 % 1.87 C
654 05-11-2020 06:25:00 2.3 C 97 % 1.87 C
655 05-11-2020 06:30:00 2.3 C 97 % 1.87 C
656 05-11-2020 06:35:00 2.3 C 97 % 1.87 C
657 05-11-2020 06:40:00 2.3 C 97 % 1.87 C
658 05-11-2020 06:45:00 2.3 C 97 % 1.87 C
659 05-11-2020 06:50:00 2.3 C 97 % 1.87 C
660 05-11-2020 06:55:00 2.3 C 97 % 1.87 C
661 05-11-2020 07:00:00 2.2 C 97 % 1.77 C
662 05-11-2020 07:05:00 2.2 C 97 % 1.77 C
663 05-11-2020 07:10:00 2.2 C 97 % 1.77 C
664 05-11-2020 07:15:00 2.2 C 97 % 1.77 C
665 05-11-2020 07:20:00 2.2 C 97 % 1.77 C
666 05-11-2020 07:25:00 2.3 C 97 % 1.87 C
667 05-11-2020 07:30:00 2.3 C 97 % 1.87 C
668 05-11-2020 07:35:00 2.3 C 97 % 1.87 C
669 05-11-2020 07:40:00 2.3 C 97 % 1.87 C
670 05-11-2020 07:55:00 3.6 C 97 % 3.17 C
671 05-11-2020 12:10:00 3.6 C 97 % 3.17 C
672 05-11-2020 12:15:00 3.6 C 97 % 3.17 C
673 05-11-2020 12:20:00 3.7 C 97 % 3.27 C
674 05-11-2020 12:25:00 3.8 C 97 % 3.37 C
675 05-11-2020 12:30:00 3.8 C 97 % 3.37 C
Sensor: Nr:Datum:Temp:Feuchte:Taupunkt:
Aussen-T/F 676 05-11-2020 12:35:00 3.7 C 97 % 3.27 C
677 05-11-2020 12:40:00 3.8 C 97 % 3.37 C
678 05-11-2020 12:45:00 3.8 C 97 % 3.37 C
679 05-11-2020 12:50:00 3.9 C 97 % 3.47 C
680 05-11-2020 12:55:00 3.9 C 97 % 3.47 C
681 05-11-2020 13:00:00 4 C 97 % 3.57 C
682 05-11-2020 13:05:00 4 C 97 % 3.57 C
683 05-11-2020 13:10:00 4 C 97 % 3.57 C
684 05-11-2020 13:15:00 4.1 C 97 % 3.67 C
685 05-11-2020 13:20:00 4.2 C 97 % 3.77 C
686 05-11-2020 13:25:00 4.2 C 97 % 3.77 C
687 05-11-2020 13:30:00 4.3 C 97 % 3.87 C
688 05-11-2020 13:35:00 4.3 C 97 % 3.87 C
689 05-11-2020 13:40:00 4.3 C 97 % 3.87 C
690 05-11-2020 13:45:00 4.3 C 97 % 3.87 C
691 05-11-2020 13:50:00 4.3 C 97 % 3.87 C
692 05-11-2020 13:55:00 4.3 C 97 % 3.87 C
693 05-11-2020 14:00:00 4.2 C 97 % 3.77 C
694 05-11-2020 14:05:00 4.1 C 97 % 3.67 C
695 05-11-2020 14:10:00 4.1 C 97 % 3.67 C
696 05-11-2020 14:15:00 4.1 C 97 % 3.67 C
697 05-11-2020 14:20:00 4.1 C 97 % 3.67 C
698 05-11-2020 14:25:00 4.2 C 97 % 3.77 C
699 05-11-2020 14:30:00 4.2 C 97 % 3.77 C
700 05-11-2020 14:35:00 4.3 C 97 % 3.87 C
Sensor: Nr:Datum:Temp:Feuchte:Taupunkt:
Aussen-T/F 701 05-11-2020 14:40:00 4.3 C 97 % 3.87 C
702 05-11-2020 14:45:00 4.2 C 97 % 3.77 C
703 05-11-2020 14:50:00 4.3 C 97 % 3.87 C
704 05-11-2020 14:55:00 4.3 C 97 % 3.87 C
705 05-11-2020 15:00:00 4.3 C 98 % 4.01 C
706 05-11-2020 15:05:00 4.3 C 98 % 4.01 C
707 05-11-2020 15:10:00 4.4 C 98 % 4.11 C
708 05-11-2020 15:15:00 4.5 C 98 % 4.21 C
709 05-11-2020 15:20:00 4.6 C 97 % 4.17 C
710 05-11-2020 15:25:00 4.5 C 97 % 4.07 C
711 05-11-2020 15:30:00 4.5 C 97 % 4.07 C
712 05-11-2020 15:35:00 4.5 C 97 % 4.07 C
713 05-11-2020 15:40:00 4.4 C 97 % 3.97 C
714 05-11-2020 15:45:00 4.4 C 97 % 3.97 C
715 05-11-2020 15:50:00 4.4 C 97 % 3.97 C
716 05-11-2020 15:55:00 4.4 C 97 % 3.97 C
717 05-11-2020 16:00:00 4.5 C 97 % 4.07 C
718 05-11-2020 16:05:00 4.5 C 97 % 4.07 C
719 05-11-2020 16:10:00 4.4 C 97 % 3.97 C
720 05-11-2020 16:15:00 4.4 C 97 % 3.97 C
721 05-11-2020 16:20:00 4.4 C 97 % 3.97 C
722 05-11-2020 16:25:00 4.4 C 97 % 3.97 C
723 05-11-2020 16:30:00 4.4 C 97 % 3.97 C
724 05-11-2020 16:35:00 4.4 C 97 % 3.97 C
725 05-11-2020 16:40:00 4.4 C 97 % 3.97 C
Sensor: Nr:Datum:Temp:Feuchte:Taupunkt:
Aussen-T/F 726 05-11-2020 16:45:00 4.3 C 97 % 3.87 C
727 05-11-2020 16:50:00 4.3 C 97 % 3.87 C
728 05-11-2020 16:55:00 4.3 C 97 % 3.87 C
729 05-11-2020 17:00:00 4.3 C 97 % 3.87 C
730 05-11-2020 17:05:00 4.3 C 97 % 3.87 C
731 05-11-2020 17:10:00 4.3 C 97 % 3.87 C
732 05-11-2020 17:15:00 4.3 C 97 % 3.87 C
733 05-11-2020 17:20:00 4.2 C 97 % 3.77 C
734 05-11-2020 17:25:00 4.2 C 97 % 3.77 C
735 05-11-2020 17:30:00 4.2 C 97 % 3.77 C
736 05-11-2020 17:35:00 4.1 C 97 % 3.67 C
737 05-11-2020 17:40:00 4.1 C 97 % 3.67 C
738 05-11-2020 17:45:00 4.1 C 97 % 3.67 C
739 05-11-2020 17:50:00 4.1 C 97 % 3.67 C
740 05-11-2020 17:55:00 4 C 97 % 3.57 C
741 05-11-2020 18:00:00 3.9 C 97 % 3.47 C
742 05-11-2020 18:05:00 3.9 C 97 % 3.47 C
743 05-11-2020 18:10:00 3.9 C 97 % 3.47 C
744 05-11-2020 18:15:00 3.9 C 97 % 3.47 C
745 05-11-2020 18:20:00 3.8 C 97 % 3.37 C
746 05-11-2020 18:25:00 3.8 C 97 % 3.37 C
747 05-11-2020 18:30:00 3.8 C 97 % 3.37 C
748 05-11-2020 18:35:00 3.8 C 97 % 3.37 C
749 05-11-2020 18:40:00 3.7 C 97 % 3.27 C
750 05-11-2020 18:45:00 3.7 C 97 % 3.27 C
Sensor: Nr:Datum:Temp:Feuchte:Taupunkt:
Aussen-T/F 751 05-11-2020 18:50:00 3.7 C 97 % 3.27 C
752 05-11-2020 18:55:00 3.6 C 97 % 3.17 C
753 05-11-2020 19:00:00 3.6 C 97 % 3.17 C
754 05-11-2020 19:05:00 3.5 C 97 % 3.07 C
755 05-11-2020 19:10:00 3.4 C 97 % 2.97 C
756 05-11-2020 19:15:00 3.4 C 97 % 2.97 C
757 05-11-2020 19:20:00 3.4 C 97 % 2.97 C
758 05-11-2020 19:25:00 3.3 C 97 % 2.87 C
759 05-11-2020 19:30:00 3.3 C 97 % 2.87 C
760 05-11-2020 19:35:00 3.3 C 97 % 2.87 C
761 05-11-2020 19:40:00 3.3 C 97 % 2.87 C
762 05-11-2020 19:45:00 3.4 C 97 % 2.97 C
763 05-11-2020 19:50:00 3.4 C 97 % 2.97 C
764 05-11-2020 19:55:00 3.4 C 97 % 2.97 C
765 05-11-2020 20:00:00 3.4 C 97 % 2.97 C
766 05-11-2020 20:05:00 3.4 C 97 % 2.97 C
767 05-11-2020 20:10:00 3.4 C 97 % 2.97 C
768 05-11-2020 20:15:00 3.4 C 97 % 2.97 C
769 05-11-2020 20:20:00 3.3 C 97 % 2.87 C
770 05-11-2020 20:25:00 3.3 C 97 % 2.87 C
771 05-11-2020 20:30:00 3.3 C 97 % 2.87 C
772 05-11-2020 20:35:00 3.2 C 97 % 2.77 C
773 05-11-2020 20:40:00 3.3 C 97 % 2.87 C
774 05-11-2020 20:45:00 3.3 C 97 % 2.87 C
775 05-11-2020 20:50:00 3.3 C 97 % 2.87 C
Sensor: Nr:Datum:Temp:Feuchte:Taupunkt:
Aussen-T/F 776 05-11-2020 20:55:00 3.3 C 97 % 2.87 C
777 05-11-2020 21:00:00 3.3 C 97 % 2.87 C
778 05-11-2020 21:05:00 3.3 C 97 % 2.87 C
779 05-11-2020 21:10:00 3.3 C 97 % 2.87 C
780 05-11-2020 21:15:00 3.3 C 97 % 2.87 C
781 05-11-2020 21:20:00 3.3 C 97 % 2.87 C
782 05-11-2020 21:25:00 3.3 C 97 % 2.87 C
783 05-11-2020 21:30:00 3.2 C 97 % 2.77 C
784 05-11-2020 21:35:00 3.2 C 97 % 2.77 C
785 05-11-2020 21:40:00 3.2 C 97 % 2.77 C
786 05-11-2020 21:45:00 3.2 C 97 % 2.77 C
787 05-11-2020 21:50:00 3.3 C 97 % 2.87 C
788 05-11-2020 21:55:00 3.3 C 97 % 2.87 C
789 05-11-2020 22:00:00 3.2 C 97 % 2.77 C
790 05-11-2020 22:05:00 3.2 C 97 % 2.77 C
791 05-11-2020 22:10:00 3.2 C 97 % 2.77 C
792 05-11-2020 22:15:00 3.1 C 97 % 2.67 C
793 05-11-2020 22:20:00 3.1 C 97 % 2.67 C
794 05-11-2020 22:25:00 3.2 C 97 % 2.77 C
795 05-11-2020 22:30:00 3.2 C 97 % 2.77 C
796 05-11-2020 22:35:00 3.2 C 97 % 2.77 C
797 05-11-2020 22:40:00 3.3 C 97 % 2.87 C
798 05-11-2020 22:45:00 3.3 C 97 % 2.87 C
799 05-11-2020 22:50:00 3.4 C 98 % 3.11 C
800 05-11-2020 22:55:00 3.4 C 98 % 3.11 C
Sensor: Nr:Datum:Temp:Feuchte:Taupunkt:
Aussen-T/F 801 05-11-2020 23:00:00 3.4 C 98 % 3.11 C
802 05-11-2020 23:05:00 3.4 C 98 % 3.11 C
803 05-11-2020 23:10:00 3.3 C 97 % 2.87 C
804 05-11-2020 23:15:00 3.3 C 97 % 2.87 C
805 05-11-2020 23:20:00 3.3 C 97 % 2.87 C
806 05-11-2020 23:25:00 3.3 C 97 % 2.87 C
807 05-11-2020 23:30:00 3.3 C 97 % 2.87 C
808 05-11-2020 23:35:00 3.3 C 97 % 2.87 C
809 05-11-2020 23:40:00 3.3 C 97 % 2.87 C
810 05-11-2020 23:45:00 3.3 C 97 % 2.87 C
811 05-11-2020 23:50:00 3.3 C 97 % 2.87 C
812 05-11-2020 23:55:00 3.3 C 97 % 2.87 C
813 06-11-2020 00:00:00 3.3 C 97 % 2.87 C
814 06-11-2020 00:05:00 3.3 C 97 % 2.87 C
815 06-11-2020 00:10:00 3.2 C 97 % 2.77 C
816 06-11-2020 00:15:00 3.2 C 97 % 2.77 C
817 06-11-2020 00:20:00 3.1 C 97 % 2.67 C
818 06-11-2020 00:25:00 3.1 C 97 % 2.67 C
819 06-11-2020 00:30:00 3.1 C 97 % 2.67 C
820 06-11-2020 00:35:00 3 C 97 % 2.57 C
821 06-11-2020 00:40:00 2.9 C 97 % 2.47 C
822 06-11-2020 00:45:00 2.9 C 97 % 2.47 C
823 06-11-2020 00:50:00 2.9 C 97 % 2.47 C
824 06-11-2020 00:55:00 2.9 C 97 % 2.47 C
825 06-11-2020 01:00:00 2.8 C 97 % 2.37 C
Sensor: Nr:Datum:Temp:Feuchte:Taupunkt:
Aussen-T/F 826 06-11-2020 01:05:00 2.8 C 97 % 2.37 C
827 06-11-2020 01:10:00 2.8 C 97 % 2.37 C
828 06-11-2020 01:15:00 2.7 C 97 % 2.27 C
829 06-11-2020 01:20:00 2.7 C 97 % 2.27 C
830 06-11-2020 01:25:00 2.7 C 97 % 2.27 C
831 06-11-2020 01:30:00 2.7 C 98 % 2.42 C
832 06-11-2020 01:35:00 2.7 C 97 % 2.27 C
833 06-11-2020 01:40:00 2.6 C 97 % 2.17 C
834 06-11-2020 01:45:00 2.6 C 97 % 2.17 C
835 06-11-2020 01:50:00 2.5 C 97 % 2.07 C
836 06-11-2020 01:55:00 2.5 C 97 % 2.07 C
837 06-11-2020 02:00:00 2.5 C 97 % 2.07 C
838 06-11-2020 02:05:00 2.6 C 97 % 2.17 C
839 06-11-2020 02:10:00 2.6 C 97 % 2.17 C
840 06-11-2020 02:15:00 2.6 C 97 % 2.17 C
841 06-11-2020 02:20:00 2.6 C 97 % 2.17 C
842 06-11-2020 02:25:00 2.6 C 98 % 2.32 C
843 06-11-2020 02:30:00 2.6 C 98 % 2.32 C
844 06-11-2020 02:35:00 2.6 C 98 % 2.32 C
845 06-11-2020 02:40:00 2.6 C 98 % 2.32 C
846 06-11-2020 02:45:00 2.5 C 98 % 2.22 C
847 06-11-2020 02:50:00 2.5 C 98 % 2.22 C
848 06-11-2020 02:55:00 2.5 C 98 % 2.22 C
849 06-11-2020 03:00:00 2.6 C 98 % 2.32 C
850 06-11-2020 03:05:00 2.7 C 97 % 2.27 C
Sensor: Nr:Datum:Temp:Feuchte:Taupunkt:
Aussen-T/F 851 06-11-2020 03:10:00 2.7 C 97 % 2.27 C
852 06-11-2020 03:15:00 2.7 C 97 % 2.27 C
853 06-11-2020 03:20:00 2.7 C 97 % 2.27 C
854 06-11-2020 03:25:00 2.7 C 97 % 2.27 C
855 06-11-2020 03:30:00 2.6 C 97 % 2.17 C
856 06-11-2020 03:35:00 2.6 C 97 % 2.17 C
857 06-11-2020 03:40:00 2.6 C 97 % 2.17 C
858 06-11-2020 03:45:00 2.6 C 97 % 2.17 C
859 06-11-2020 03:50:00 2.7 C 97 % 2.27 C
860 06-11-2020 03:55:00 2.7 C 97 % 2.27 C
861 06-11-2020 04:00:00 2.7 C 97 % 2.27 C
862 06-11-2020 04:05:00 2.6 C 97 % 2.17 C
863 06-11-2020 04:10:00 2.6 C 98 % 2.32 C
864 06-11-2020 04:15:00 2.5 C 98 % 2.22 C
865 06-11-2020 04:20:00 2.5 C 98 % 2.22 C
866 06-11-2020 04:25:00 2.4 C 98 % 2.12 C
867 06-11-2020 04:30:00 2.4 C 98 % 2.12 C
868 06-11-2020 04:35:00 2.4 C 98 % 2.12 C
869 06-11-2020 04:40:00 2.5 C 98 % 2.22 C
870 06-11-2020 04:45:00 2.5 C 98 % 2.22 C
871 06-11-2020 04:50:00 2.5 C 98 % 2.22 C
872 06-11-2020 04:55:00 2.4 C 98 % 2.12 C
873 06-11-2020 05:00:00 2.4 C 97 % 1.97 C
874 06-11-2020 05:05:00 2.4 C 97 % 1.97 C
875 06-11-2020 05:10:00 2.4 C 97 % 1.97 C
Sensor: Nr:Datum:Temp:Feuchte:Taupunkt:
Aussen-T/F 876 06-11-2020 05:15:00 2.4 C 97 % 1.97 C
877 06-11-2020 05:20:00 2.4 C 97 % 1.97 C
878 06-11-2020 05:25:00 2.4 C 98 % 2.12 C
879 06-11-2020 05:30:00 2.5 C 98 % 2.22 C
880 06-11-2020 05:35:00 2.5 C 98 % 2.22 C
881 06-11-2020 05:40:00 2.6 C 98 % 2.32 C
882 06-11-2020 05:45:00 2.6 C 97 % 2.17 C
883 06-11-2020 05:50:00 2.6 C 97 % 2.17 C
884 06-11-2020 05:55:00 2.6 C 98 % 2.32 C
885 06-11-2020 06:00:00 2.6 C 98 % 2.32 C
886 06-11-2020 06:05:00 2.6 C 98 % 2.32 C
887 06-11-2020 06:10:00 2.6 C 98 % 2.32 C
888 06-11-2020 06:15:00 2.6 C 98 % 2.32 C
889 06-11-2020 06:20:00 2.6 C 97 % 2.17 C
890 06-11-2020 06:25:00 2.7 C 97 % 2.27 C
891 06-11-2020 06:30:00 2.6 C 98 % 2.32 C
892 06-11-2020 06:35:00 2.6 C 98 % 2.32 C
893 06-11-2020 06:40:00 2.6 C 97 % 2.17 C
894 06-11-2020 06:45:00 2.7 C 98 % 2.42 C
895 06-11-2020 06:50:00 2.6 C 97 % 2.17 C
896 06-11-2020 06:55:00 2.6 C 98 % 2.32 C
897 06-11-2020 07:00:00 2.6 C 98 % 2.32 C
898 06-11-2020 07:05:00 2.6 C 98 % 2.32 C
899 06-11-2020 07:10:00 2.6 C 98 % 2.32 C
900 06-11-2020 07:15:00 2.6 C 98 % 2.32 C
Sensor: Nr:Datum:Temp:Feuchte:Taupunkt:
Aussen-T/F 901 06-11-2020 07:20:00 2.6 C 98 % 2.32 C
902 06-11-2020 07:25:00 2.6 C 98 % 2.32 C
903 06-11-2020 07:30:00 2.6 C 98 % 2.32 C
904 06-11-2020 07:35:00 2.5 C 98 % 2.22 C
905 06-11-2020 07:40:00 2.5 C 98 % 2.22 C
906 06-11-2020 07:45:00 2.5 C 98 % 2.22 C
907 06-11-2020 07:50:00 2.4 C 98 % 2.12 C
908 06-11-2020 07:55:00 2.4 C 98 % 2.12 C
909 06-11-2020 08:00:00 2.4 C 98 % 2.12 C
910 06-11-2020 08:05:00 2.4 C 98 % 2.12 C
911 06-11-2020 08:10:00 2.4 C 98 % 2.12 C
912 06-11-2020 08:15:00 2.4 C 98 % 2.12 C
913 06-11-2020 08:20:00 2.5 C 98 % 2.22 C
914 06-11-2020 08:25:00 2.6 C 98 % 2.32 C
915 06-11-2020 08:30:00 2.6 C 98 % 2.32 C
916 06-11-2020 08:35:00 2.6 C 98 % 2.32 C
917 06-11-2020 08:40:00 2.6 C 98 % 2.32 C
918 06-11-2020 08:45:00 2.6 C 98 % 2.32 C
919 06-11-2020 08:50:00 2.7 C 98 % 2.42 C
920 06-11-2020 08:55:00 2.7 C 98 % 2.42 C
921 06-11-2020 09:00:00 2.7 C 98 % 2.42 C
922 06-11-2020 09:05:00 2.8 C 98 % 2.52 C
923 06-11-2020 09:10:00 2.8 C 98 % 2.52 C
924 06-11-2020 09:15:00 2.9 C 98 % 2.62 C
925 06-11-2020 09:20:00 2.9 C 98 % 2.62 C
Sensor: Nr:Datum:Temp:Feuchte:Taupunkt:
Aussen-T/F 926 06-11-2020 09:25:00 3.1 C 98 % 2.82 C
927 06-11-2020 09:30:00 3.1 C 98 % 2.82 C
928 06-11-2020 09:35:00 3.1 C 98 % 2.82 C
929 06-11-2020 09:40:00 3.2 C 98 % 2.92 C
930 06-11-2020 09:45:00 3.2 C 98 % 2.92 C
931 06-11-2020 09:50:00 3.3 C 98 % 3.01 C
932 06-11-2020 09:55:00 3.3 C 98 % 3.01 C
933 06-11-2020 10:00:00 3.4 C 98 % 3.11 C
934 06-11-2020 10:05:00 3.4 C 98 % 3.11 C
935 06-11-2020 10:10:00 3.4 C 98 % 3.11 C
936 06-11-2020 10:15:00 3.4 C 98 % 3.11 C
937 06-11-2020 10:20:00 3.4 C 98 % 3.11 C
938 06-11-2020 10:25:00 3.6 C 98 % 3.31 C
939 06-11-2020 10:30:00 3.7 C 98 % 3.41 C
940 06-11-2020 10:35:00 3.8 C 98 % 3.51 C
941 06-11-2020 10:40:00 3.9 C 98 % 3.61 C
942 06-11-2020 10:45:00 3.8 C 98 % 3.51 C
943 06-11-2020 10:50:00 3.8 C 98 % 3.51 C
944 06-11-2020 10:55:00 3.8 C 98 % 3.51 C
945 06-11-2020 11:00:00 3.9 C 98 % 3.61 C
946 06-11-2020 11:05:00 4 C 98 % 3.71 C
947 06-11-2020 11:10:00 4 C 98 % 3.71 C
948 06-11-2020 11:15:00 4.1 C 98 % 3.81 C
949 06-11-2020 11:20:00 4.1 C 98 % 3.81 C
950 06-11-2020 11:25:00 4.1 C 98 % 3.81 C
Sensor: Nr:Datum:Temp:Feuchte:Taupunkt:
Aussen-T/F 951 06-11-2020 11:30:00 4.2 C 98 % 3.91 C
952 06-11-2020 11:35:00 4.2 C 98 % 3.91 C
953 06-11-2020 11:40:00 4.2 C 98 % 3.91 C
954 06-11-2020 11:45:00 4.2 C 98 % 3.91 C
955 06-11-2020 11:50:00 4.2 C 98 % 3.91 C
956 06-11-2020 11:55:00 4.2 C 98 % 3.91 C
957 06-11-2020 12:00:00 4.3 C 98 % 4.01 C
958 06-11-2020 12:05:00 4.3 C 98 % 4.01 C
959 06-11-2020 12:10:00 4.3 C 98 % 4.01 C
960 06-11-2020 12:15:00 4.3 C 98 % 4.01 C
961 06-11-2020 12:20:00 4.3 C 98 % 4.01 C
962 06-11-2020 12:25:00 4.3 C 98 % 4.01 C
963 06-11-2020 12:30:00 4.3 C 98 % 4.01 C
964 06-11-2020 12:35:00 4.3 C 98 % 4.01 C
965 06-11-2020 12:40:00 4.3 C 98 % 4.01 C
966 06-11-2020 12:45:00 4.4 C 98 % 4.11 C
967 06-11-2020 12:50:00 4.5 C 98 % 4.21 C
968 06-11-2020 12:55:00 4.6 C 98 % 4.31 C
969 06-11-2020 13:00:00 4.7 C 98 % 4.41 C
970 06-11-2020 13:05:00 4.7 C 98 % 4.41 C
971 06-11-2020 13:10:00 4.8 C 98 % 4.51 C
972 06-11-2020 13:15:00 4.9 C 98 % 4.61 C
973 06-11-2020 13:20:00 5 C 98 % 4.71 C
974 06-11-2020 13:25:00 5.1 C 98 % 4.81 C
975 06-11-2020 13:30:00 5.2 C 98 % 4.91 C
Sensor: Nr:Datum:Temp:Feuchte:Taupunkt:
Aussen-T/F 976 06-11-2020 13:35:00 5.2 C 98 % 4.91 C
977 06-11-2020 13:40:00 5.3 C 98 % 5.01 C
978 06-11-2020 13:45:00 5.4 C 98 % 5.11 C
979 06-11-2020 13:50:00 5.5 C 98 % 5.21 C
980 06-11-2020 13:55:00 5.6 C 98 % 5.31 C
981 06-11-2020 14:00:00 5.6 C 98 % 5.31 C
982 06-11-2020 14:05:00 5.7 C 98 % 5.41 C
983 06-11-2020 14:10:00 5.8 C 98 % 5.51 C
984 06-11-2020 14:15:00 5.8 C 98 % 5.51 C
985 06-11-2020 14:20:00 5.9 C 98 % 5.61 C
986 06-11-2020 14:25:00 6.1 C 98 % 5.81 C
987 06-11-2020 14:30:00 6.1 C 98 % 5.81 C
988 06-11-2020 14:35:00 6.2 C 98 % 5.91 C
989 06-11-2020 14:40:00 6.2 C 98 % 5.91 C
990 06-11-2020 14:45:00 6.2 C 98 % 5.91 C
991 06-11-2020 14:50:00 6.2 C 98 % 5.91 C
992 06-11-2020 14:55:00 6.3 C 98 % 6.01 C
993 06-11-2020 15:00:00 6.3 C 98 % 6.01 C
994 06-11-2020 15:05:00 6.3 C 98 % 6.01 C
995 06-11-2020 15:10:00 6.4 C 98 % 6.11 C
996 06-11-2020 15:15:00 6.4 C 98 % 6.11 C
997 06-11-2020 15:20:00 6.4 C 98 % 6.11 C
998 06-11-2020 15:25:00 6.4 C 98 % 6.11 C
999 06-11-2020 15:30:00 6.4 C 98 % 6.11 C
1000 06-11-2020 15:35:00 6.4 C 98 % 6.11 C
Sensor: Nr:Datum:Temp:Feuchte:Taupunkt:
Aussen-T/F 1001 06-11-2020 15:40:00 6.4 C 98 % 6.11 C
1002 06-11-2020 15:45:00 6.3 C 98 % 6.01 C
1003 06-11-2020 15:50:00 6.3 C 98 % 6.01 C
1004 06-11-2020 15:55:00 6.2 C 98 % 5.91 C
1005 06-11-2020 16:00:00 6.1 C 98 % 5.81 C
1006 06-11-2020 16:05:00 6.1 C 98 % 5.81 C
1007 06-11-2020 16:10:00 6 C 98 % 5.71 C
1008 06-11-2020 16:15:00 5.9 C 98 % 5.61 C
1009 06-11-2020 16:20:00 5.8 C 98 % 5.51 C
1010 06-11-2020 16:25:00 5.7 C 98 % 5.41 C
1011 06-11-2020 16:30:00 5.6 C 98 % 5.31 C
1012 06-11-2020 16:35:00 5.5 C 98 % 5.21 C
1013 06-11-2020 16:40:00 5.4 C 98 % 5.11 C
1014 06-11-2020 16:45:00 5.3 C 98 % 5.01 C
1015 06-11-2020 16:50:00 5.2 C 98 % 4.91 C
1016 06-11-2020 16:55:00 5.2 C 98 % 4.91 C
1017 06-11-2020 17:00:00 5.1 C 98 % 4.81 C
1018 06-11-2020 17:05:00 4.9 C 97 % 4.46 C
1019 06-11-2020 17:10:00 4.8 C 97 % 4.37 C
1020 06-11-2020 17:15:00 4.7 C 98 % 4.41 C
1021 06-11-2020 17:20:00 4.6 C 97 % 4.17 C
1022 06-11-2020 17:25:00 4.5 C 97 % 4.07 C
1023 06-11-2020 17:30:00 4.4 C 97 % 3.97 C
1024 06-11-2020 17:35:00 4.4 C 97 % 3.97 C
1025 06-11-2020 17:40:00 4.3 C 97 % 3.87 C
Sensor: Nr:Datum:Temp:Feuchte:Taupunkt:
Aussen-T/F 1026 06-11-2020 17:45:00 4.3 C 97 % 3.87 C
1027 06-11-2020 17:50:00 4.1 C 97 % 3.67 C
1028 06-11-2020 17:55:00 3.9 C 97 % 3.47 C
1029 06-11-2020 18:00:00 3.9 C 97 % 3.47 C
1030 06-11-2020 18:05:00 3.8 C 97 % 3.37 C
1031 06-11-2020 18:10:00 3.7 C 97 % 3.27 C
1032 06-11-2020 18:15:00 3.6 C 97 % 3.17 C
1033 06-11-2020 18:20:00 3.6 C 97 % 3.17 C
1034 06-11-2020 18:25:00 3.4 C 97 % 2.97 C
1035 06-11-2020 18:30:00 3.3 C 97 % 2.87 C
1036 06-11-2020 18:35:00 3.3 C 97 % 2.87 C
1037 06-11-2020 18:40:00 3.2 C 97 % 2.77 C
1038 06-11-2020 18:45:00 3.1 C 96 % 2.53 C
1039 06-11-2020 18:50:00 2.9 C 96 % 2.33 C
1040 06-11-2020 18:55:00 2.9 C 96 % 2.33 C
1041 06-11-2020 19:00:00 2.8 C 96 % 2.23 C
1042 06-11-2020 19:05:00 2.7 C 96 % 2.13 C
1043 06-11-2020 19:10:00 2.7 C 96 % 2.13 C
1044 06-11-2020 19:15:00 2.6 C 96 % 2.03 C
1045 06-11-2020 19:20:00 2.5 C 96 % 1.93 C
1046 06-11-2020 19:25:00 2.5 C 96 % 1.93 C
1047 06-11-2020 19:30:00 2.4 C 96 % 1.83 C
1048 06-11-2020 19:35:00 2.3 C 96 % 1.73 C
1049 06-11-2020 19:40:00 2.2 C 96 % 1.63 C
1050 06-11-2020 19:45:00 2.2 C 96 % 1.63 C
Sensor: Nr:Datum:Temp:Feuchte:Taupunkt:
Aussen-T/F 1051 06-11-2020 19:50:00 2.1 C 96 % 1.53 C
1052 06-11-2020 19:55:00 2.1 C 96 % 1.53 C
1053 06-11-2020 20:00:00 2.1 C 96 % 1.53 C
1054 06-11-2020 20:05:00 2 C 96 % 1.43 C
1055 06-11-2020 20:10:00 2 C 96 % 1.43 C
1056 06-11-2020 20:15:00 1.9 C 96 % 1.33 C
1057 06-11-2020 20:20:00 1.9 C 96 % 1.33 C
1058 06-11-2020 20:25:00 1.9 C 96 % 1.33 C
1059 06-11-2020 20:30:00 1.9 C 96 % 1.33 C
1060 06-11-2020 20:35:00 1.9 C 96 % 1.33 C
1061 06-11-2020 20:40:00 1.8 C 96 % 1.23 C
1062 06-11-2020 20:45:00 1.8 C 96 % 1.23 C
1063 06-11-2020 20:50:00 1.7 C 96 % 1.13 C
1064 06-11-2020 20:55:00 1.6 C 96 % 1.03 C
1065 06-11-2020 21:00:00 1.6 C 96 % 1.03 C
1066 06-11-2020 21:05:00 1.6 C 96 % 1.03 C
1067 06-11-2020 21:10:00 1.5 C 96 % 0.93 C
1068 06-11-2020 21:15:00 1.5 C 96 % 0.93 C
1069 06-11-2020 21:20:00 1.4 C 96 % 0.83 C
1070 06-11-2020 21:25:00 1.4 C 96 % 0.83 C
1071 06-11-2020 21:30:00 1.4 C 96 % 0.83 C
1072 06-11-2020 21:35:00 1.4 C 96 % 0.83 C
1073 06-11-2020 21:40:00 1.5 C 96 % 0.93 C
1074 06-11-2020 21:45:00 1.5 C 96 % 0.93 C
1075 06-11-2020 21:50:00 1.4 C 96 % 0.83 C
Sensor: Nr:Datum:Temp:Feuchte:Taupunkt:
Aussen-T/F 1076 06-11-2020 21:55:00 1.3 C 96 % 0.73 C
1077 06-11-2020 22:00:00 1.3 C 96 % 0.73 C
1078 06-11-2020 22:05:00 1.3 C 96 % 0.73 C
1079 06-11-2020 22:10:00 1.3 C 96 % 0.73 C
1080 06-11-2020 22:15:00 1.3 C 96 % 0.73 C
1081 06-11-2020 22:20:00 1.3 C 96 % 0.73 C
1082 06-11-2020 22:25:00 1.3 C 96 % 0.73 C
1083 06-11-2020 22:30:00 1.3 C 96 % 0.73 C
1084 06-11-2020 22:35:00 1.2 C 96 % 0.63 C
1085 06-11-2020 22:40:00 1.2 C 96 % 0.63 C
1086 06-11-2020 22:45:00 1.2 C 96 % 0.63 C
1087 06-11-2020 22:50:00 1.1 C 96 % 0.54 C
1088 06-11-2020 22:55:00 1.1 C 96 % 0.54 C
1089 06-11-2020 23:00:00 1.1 C 96 % 0.54 C
1090 06-11-2020 23:05:00 1.1 C 96 % 0.54 C
1091 06-11-2020 23:10:00 1 C 96 % 0.44 C
1092 06-11-2020 23:15:00 1 C 96 % 0.44 C
1093 06-11-2020 23:20:00 0.9 C 96 % 0.34 C
1094 06-11-2020 23:25:00 0.8 C 96 % 0.24 C
1095 06-11-2020 23:30:00 0.8 C 96 % 0.24 C
1096 06-11-2020 23:35:00 0.8 C 96 % 0.24 C
1097 06-11-2020 23:40:00 0.8 C 96 % 0.24 C
1098 06-11-2020 23:45:00 0.8 C 96 % 0.24 C
1099 06-11-2020 23:50:00 0.8 C 96 % 0.24 C
1100 06-11-2020 23:55:00 0.8 C 96 % 0.24 C
Sensor: Nr:Datum:Temp:Feuchte:Taupunkt:
Aussen-T/F 1101 07-11-2020 00:00:00 0.8 C 96 % 0.24 C
1102 07-11-2020 00:05:00 0.8 C 96 % 0.24 C
1103 07-11-2020 00:10:00 0.8 C 96 % 0.24 C
1104 07-11-2020 00:15:00 0.8 C 96 % 0.24 C
1105 07-11-2020 00:20:00 0.8 C 96 % 0.24 C
1106 07-11-2020 00:25:00 0.8 C 96 % 0.24 C
1107 07-11-2020 00:30:00 0.8 C 96 % 0.24 C
1108 07-11-2020 00:35:00 0.8 C 96 % 0.24 C
1109 07-11-2020 00:40:00 0.8 C 96 % 0.24 C
1110 07-11-2020 00:45:00 0.8 C 96 % 0.24 C
1111 07-11-2020 00:50:00 0.8 C 96 % 0.24 C
1112 07-11-2020 00:55:00 0.7 C 96 % 0.14 C
1113 07-11-2020 01:00:00 0.7 C 96 % 0.14 C
1114 07-11-2020 01:05:00 0.7 C 96 % 0.14 C
1115 07-11-2020 01:10:00 0.6 C 96 % 0.04 C
1116 07-11-2020 01:15:00 0.6 C 96 % 0.04 C
1117 07-11-2020 01:20:00 0.6 C 96 % 0.04 C
1118 07-11-2020 01:25:00 0.6 C 96 % 0.04 C
1119 07-11-2020 01:30:00 0.7 C 97 % 0.28 C
1120 07-11-2020 01:35:00 0.7 C 97 % 0.28 C
1121 07-11-2020 01:40:00 0.7 C 97 % 0.28 C
1122 07-11-2020 01:45:00 0.6 C 97 % 0.18 C
1123 07-11-2020 01:50:00 0.6 C 97 % 0.18 C
1124 07-11-2020 01:55:00 0.6 C 97 % 0.18 C
1125 07-11-2020 02:00:00 0.6 C 97 % 0.18 C
Sensor: Nr:Datum:Temp:Feuchte:Taupunkt:
Aussen-T/F 1126 07-11-2020 02:05:00 0.5 C 97 % 0.08 C
1127 07-11-2020 02:10:00 0.5 C 96 % -0.06 C
1128 07-11-2020 02:15:00 0.4 C 96 % -0.16 C
1129 07-11-2020 02:20:00 0.5 C 96 % -0.06 C
1130 07-11-2020 02:25:00 0.5 C 96 % -0.06 C
1131 07-11-2020 02:30:00 0.5 C 97 % 0.08 C
1132 07-11-2020 02:35:00 0.6 C 97 % 0.18 C
1133 07-11-2020 02:40:00 0.5 C 97 % 0.08 C
1134 07-11-2020 02:45:00 0.5 C 97 % 0.08 C
1135 07-11-2020 02:50:00 0.5 C 97 % 0.08 C
1136 07-11-2020 02:55:00 0.5 C 97 % 0.08 C
1137 07-11-2020 03:00:00 0.5 C 97 % 0.08 C
1138 07-11-2020 03:05:00 0.6 C 97 % 0.18 C
1139 07-11-2020 03:10:00 0.6 C 97 % 0.18 C
1140 07-11-2020 03:15:00 0.5 C 97 % 0.08 C
1141 07-11-2020 03:20:00 0.4 C 97 % -0.02 C
1142 07-11-2020 03:25:00 0.3 C 97 % -0.12 C
1143 07-11-2020 03:30:00 0.3 C 97 % -0.12 C
1144 07-11-2020 03:35:00 0.3 C 97 % -0.12 C
1145 07-11-2020 03:40:00 0.3 C 97 % -0.12 C
1146 07-11-2020 03:45:00 0.3 C 97 % -0.12 C
1147 07-11-2020 03:50:00 0.3 C 97 % -0.12 C
1148 07-11-2020 03:55:00 0.3 C 97 % -0.12 C
1149 07-11-2020 04:00:00 0.4 C 97 % -0.02 C
1150 07-11-2020 04:05:00 0.4 C 97 % -0.02 C
Sensor: Nr:Datum:Temp:Feuchte:Taupunkt:
Aussen-T/F 1151 07-11-2020 04:10:00 0.3 C 97 % -0.12 C
1152 07-11-2020 04:15:00 0.3 C 97 % -0.12 C
1153 07-11-2020 04:20:00 0.4 C 97 % -0.02 C
1154 07-11-2020 04:25:00 0.4 C 97 % -0.02 C
1155 07-11-2020 04:30:00 0.4 C 97 % -0.02 C
1156 07-11-2020 04:35:00 0.4 C 97 % -0.02 C
1157 07-11-2020 04:40:00 0.3 C 97 % -0.12 C
1158 07-11-2020 04:45:00 0.3 C 97 % -0.12 C
1159 07-11-2020 04:50:00 0.4 C 97 % -0.02 C
1160 07-11-2020 04:55:00 0.4 C 97 % -0.02 C
1161 07-11-2020 05:00:00 0.3 C 97 % -0.12 C
1162 07-11-2020 05:05:00 0.3 C 97 % -0.12 C
1163 07-11-2020 05:10:00 0.3 C 97 % -0.12 C
1164 07-11-2020 05:15:00 0.3 C 97 % -0.12 C
1165 07-11-2020 05:20:00 0.3 C 97 % -0.12 C
1166 07-11-2020 05:25:00 0.3 C 97 % -0.12 C
1167 07-11-2020 05:30:00 0.3 C 97 % -0.12 C
1168 07-11-2020 05:35:00 0.3 C 97 % -0.12 C
1169 07-11-2020 05:40:00 0.3 C 97 % -0.12 C
1170 07-11-2020 05:45:00 0.3 C 97 % -0.12 C
1171 07-11-2020 05:50:00 0.3 C 97 % -0.12 C
1172 07-11-2020 05:55:00 0.3 C 97 % -0.12 C
1173 07-11-2020 06:00:00 0.3 C 97 % -0.12 C
1174 07-11-2020 06:05:00 0.3 C 97 % -0.12 C
1175 07-11-2020 06:10:00 0.3 C 97 % -0.12 C
Sensor: Nr:Datum:Temp:Feuchte:Taupunkt:
Aussen-T/F 1176 07-11-2020 06:15:00 0.3 C 97 % -0.12 C
1177 07-11-2020 06:20:00 0.3 C 97 % -0.12 C
1178 07-11-2020 06:25:00 0.3 C 97 % -0.12 C
1179 07-11-2020 06:30:00 0.3 C 97 % -0.12 C
1180 07-11-2020 06:35:00 0.3 C 97 % -0.12 C
1181 07-11-2020 06:40:00 0.3 C 97 % -0.12 C
1182 07-11-2020 06:45:00 0.3 C 97 % -0.12 C
1183 07-11-2020 06:50:00 0.3 C 97 % -0.12 C
1184 07-11-2020 06:55:00 0.3 C 97 % -0.12 C
1185 07-11-2020 07:00:00 0.3 C 97 % -0.12 C
1186 07-11-2020 07:05:00 0.3 C 97 % -0.12 C
1187 07-11-2020 07:10:00 0.3 C 97 % -0.12 C
1188 07-11-2020 07:15:00 0.3 C 97 % -0.12 C
1189 07-11-2020 07:20:00 0.3 C 97 % -0.12 C
1190 07-11-2020 07:25:00 0.3 C 97 % -0.12 C
1191 07-11-2020 07:30:00 0.3 C 97 % -0.12 C
1192 07-11-2020 07:35:00 0.3 C 97 % -0.12 C
1193 07-11-2020 07:40:00 0.3 C 97 % -0.12 C
1194 07-11-2020 07:45:00 0.3 C 97 % -0.12 C
1195 07-11-2020 07:50:00 0.3 C 97 % -0.12 C
1196 07-11-2020 07:55:00 0.4 C 97 % -0.02 C
1197 07-11-2020 08:00:00 0.4 C 97 % -0.02 C
1198 07-11-2020 08:05:00 0.5 C 97 % 0.08 C
1199 07-11-2020 08:10:00 0.5 C 97 % 0.08 C
1200 07-11-2020 08:15:00 0.6 C 97 % 0.18 C
Sensor: Nr:Datum:Temp:Feuchte:Taupunkt:
Aussen-T/F 1201 07-11-2020 08:20:00 0.6 C 97 % 0.18 C
1202 07-11-2020 08:25:00 0.7 C 97 % 0.28 C
1203 07-11-2020 08:30:00 0.7 C 97 % 0.28 C
1204 07-11-2020 08:35:00 0.8 C 97 % 0.38 C
1205 07-11-2020 08:40:00 0.8 C 97 % 0.38 C
1206 07-11-2020 08:45:00 0.9 C 97 % 0.48 C
1207 07-11-2020 08:50:00 1 C 97 % 0.58 C
1208 07-11-2020 08:55:00 1.1 C 97 % 0.68 C
1209 07-11-2020 09:00:00 1.2 C 97 % 0.78 C
1210 07-11-2020 09:05:00 1.3 C 97 % 0.88 C
1211 07-11-2020 09:10:00 1.3 C 97 % 0.88 C
1212 07-11-2020 09:50:00 1.6 C 97 % 1.18 C
1213 07-11-2020 09:55:00 2 C 97 % 1.58 C
1214 07-11-2020 10:00:00 2.1 C 97 % 1.67 C
1215 07-11-2020 10:05:00 2.2 C 98 % 1.92 C
1216 07-11-2020 10:10:00 2.3 C 97 % 1.87 C
1217 07-11-2020 10:15:00 2.4 C 97 % 1.97 C
1218 07-11-2020 10:20:00 2.5 C 98 % 2.22 C
1219 07-11-2020 10:25:00 2.7 C 98 % 2.42 C
1220 07-11-2020 10:30:00 2.8 C 98 % 2.52 C
1221 07-11-2020 10:35:00 2.9 C 98 % 2.62 C
1222 07-11-2020 10:40:00 3.1 C 98 % 2.82 C
1223 07-11-2020 10:45:00 3.2 C 98 % 2.92 C
1224 07-11-2020 10:50:00 3.4 C 98 % 3.11 C
1225 07-11-2020 10:55:00 3.7 C 98 % 3.41 C
Sensor: Nr:Datum:Temp:Feuchte:Taupunkt:
Aussen-T/F 1226 07-11-2020 11:00:00 3.9 C 98 % 3.61 C
1227 07-11-2020 11:05:00 4.1 C 98 % 3.81 C
1228 07-11-2020 11:10:00 4.3 C 98 % 4.01 C
1229 07-11-2020 11:15:00 4.4 C 98 % 4.11 C
1230 07-11-2020 11:20:00 4.7 C 98 % 4.41 C
1231 07-11-2020 11:25:00 4.8 C 98 % 4.51 C
1232 07-11-2020 11:30:00 5 C 98 % 4.71 C
1233 07-11-2020 11:35:00 5.2 C 98 % 4.91 C
1234 07-11-2020 11:40:00 5.3 C 98 % 5.01 C
1235 07-11-2020 11:45:00 5.4 C 98 % 5.11 C
1236 07-11-2020 11:50:00 5.6 C 98 % 5.31 C
1237 07-11-2020 11:55:00 5.8 C 98 % 5.51 C
1238 07-11-2020 12:00:00 5.9 C 98 % 5.61 C
1239 07-11-2020 12:05:00 6.1 C 98 % 5.81 C
1240 07-11-2020 12:10:00 6.2 C 98 % 5.91 C
1241 07-11-2020 12:15:00 6.3 C 98 % 6.01 C
1242 07-11-2020 12:20:00 6.4 C 98 % 6.11 C
1243 07-11-2020 12:25:00 6.6 C 98 % 6.31 C
1244 07-11-2020 12:30:00 6.7 C 98 % 6.41 C
1245 07-11-2020 12:35:00 6.8 C 98 % 6.51 C
1246 07-11-2020 12:40:00 6.9 C 98 % 6.61 C
1247 07-11-2020 12:45:00 6.9 C 98 % 6.61 C
1248 07-11-2020 12:50:00 7.1 C 98 % 6.81 C
1249 07-11-2020 12:55:00 7.2 C 98 % 6.91 C
1250 07-11-2020 13:00:00 7.3 C 98 % 7.01 C
Sensor: Nr:Datum:Temp:Feuchte:Taupunkt:
Aussen-T/F 1251 07-11-2020 13:05:00 7.4 C 98 % 7.11 C
1252 07-11-2020 13:10:00 7.5 C 98 % 7.2 C
1253 07-11-2020 13:15:00 7.6 C 98 % 7.3 C
1254 07-11-2020 13:20:00 7.7 C 98 % 7.4 C
1255 07-11-2020 13:25:00 7.8 C 98 % 7.5 C
1256 07-11-2020 13:30:00 7.9 C 98 % 7.6 C
1257 07-11-2020 13:35:00 7.9 C 98 % 7.6 C
1258 07-11-2020 13:40:00 8.1 C 98 % 7.8 C
1259 07-11-2020 13:45:00 8.1 C 98 % 7.8 C
1260 07-11-2020 13:50:00 8.2 C 98 % 7.9 C
1261 07-11-2020 13:55:00 8.3 C 98 % 8 C
1262 07-11-2020 14:00:00 8.4 C 98 % 8.1 C
1263 07-11-2020 14:05:00 8.6 C 98 % 8.3 C
1264 07-11-2020 14:10:00 8.6 C 98 % 8.3 C
1265 07-11-2020 14:15:00 8.7 C 98 % 8.4 C
1266 07-11-2020 14:20:00 8.8 C 98 % 8.5 C
1267 07-11-2020 14:25:00 8.8 C 98 % 8.5 C
1268 07-11-2020 14:30:00 8.9 C 98 % 8.6 C
1269 07-11-2020 14:35:00 9 C 98 % 8.7 C
1270 07-11-2020 14:40:00 9.1 C 98 % 8.8 C
1271 07-11-2020 14:45:00 9.2 C 98 % 8.9 C
1272 07-11-2020 14:50:00 9.3 C 98 % 9 C
1273 07-11-2020 14:55:00 9.3 C 98 % 9 C
1274 07-11-2020 15:00:00 9.4 C 97 % 8.95 C
1275 07-11-2020 15:05:00 9.5 C 97 % 9.05 C
Sensor: Nr:Datum:Temp:Feuchte:Taupunkt:
Aussen-T/F 1276 07-11-2020 15:10:00 9.5 C 97 % 9.05 C
1277 07-11-2020 15:15:00 9.6 C 97 % 9.15 C
1278 07-11-2020 15:20:00 9.7 C 97 % 9.25 C
1279 07-11-2020 15:25:00 9.7 C 97 % 9.25 C
1280 07-11-2020 15:30:00 9.8 C 96 % 9.19 C
1281 07-11-2020 15:35:00 9.8 C 96 % 9.19 C
1282 07-11-2020 15:40:00 9.8 C 96 % 9.19 C
1283 07-11-2020 15:45:00 9.8 C 96 % 9.19 C
1284 07-11-2020 15:50:00 9.8 C 95 % 9.04 C
1285 07-11-2020 15:55:00 9.8 C 95 % 9.04 C
1286 07-11-2020 16:00:00 9.8 C 95 % 9.04 C
1287 07-11-2020 16:05:00 9.7 C 94 % 8.78 C
1288 07-11-2020 16:10:00 9.7 C 94 % 8.78 C
1289 07-11-2020 16:15:00 9.7 C 93 % 8.62 C
1290 07-11-2020 16:20:00 9.6 C 93 % 8.53 C
1291 07-11-2020 16:25:00 9.6 C 93 % 8.53 C
1292 07-11-2020 16:30:00 9.6 C 92 % 8.37 C
1293 07-11-2020 16:35:00 9.5 C 92 % 8.27 C
1294 07-11-2020 16:40:00 9.3 C 91 % 7.91 C
1295 07-11-2020 16:45:00 9.2 C 91 % 7.81 C
1296 07-11-2020 16:50:00 9.1 C 91 % 7.71 C
1297 07-11-2020 16:55:00 8.9 C 91 % 7.51 C
1298 07-11-2020 17:00:00 8.7 C 91 % 7.32 C
1299 07-11-2020 17:05:00 8.6 C 91 % 7.22 C
1300 07-11-2020 17:10:00 8.4 C 91 % 7.02 C
Sensor: Nr:Datum:Temp:Feuchte:Taupunkt:
Aussen-T/F 1301 07-11-2020 17:15:00 8.3 C 91 % 6.92 C
1302 07-11-2020 17:20:00 8.2 C 91 % 6.82 C
1303 07-11-2020 17:25:00 8.1 C 92 % 6.88 C
1304 07-11-2020 17:30:00 8 C 92 % 6.78 C
1305 07-11-2020 17:35:00 7.9 C 92 % 6.68 C
1306 07-11-2020 17:40:00 7.8 C 92 % 6.58 C
1307 07-11-2020 17:45:00 7.7 C 92 % 6.48 C
1308 07-11-2020 17:50:00 7.7 C 92 % 6.48 C
1309 07-11-2020 17:55:00 7.7 C 92 % 6.48 C
1310 07-11-2020 18:00:00 7.6 C 92 % 6.39 C
1311 07-11-2020 18:05:00 7.6 C 93 % 6.54 C
1312 07-11-2020 18:10:00 7.6 C 93 % 6.54 C
1313 07-11-2020 18:15:00 7.5 C 93 % 6.44 C
1314 07-11-2020 18:20:00 7.5 C 93 % 6.44 C
1315 07-11-2020 18:25:00 7.4 C 93 % 6.34 C
1316 07-11-2020 18:30:00 7.4 C 93 % 6.34 C
1317 07-11-2020 18:35:00 7.4 C 93 % 6.34 C
1318 07-11-2020 18:40:00 7.3 C 93 % 6.25 C
1319 07-11-2020 18:45:00 7.3 C 93 % 6.25 C
1320 07-11-2020 18:50:00 7.2 C 93 % 6.15 C
1321 07-11-2020 18:55:00 7.2 C 93 % 6.15 C
1322 07-11-2020 19:00:00 7.1 C 93 % 6.05 C
1323 07-11-2020 19:05:00 7 C 93 % 5.95 C
1324 07-11-2020 19:10:00 6.9 C 93 % 5.85 C
1325 07-11-2020 19:15:00 6.8 C 93 % 5.75 C
Sensor: Nr:Datum:Temp:Feuchte:Taupunkt:
Aussen-T/F 1326 07-11-2020 19:20:00 6.8 C 93 % 5.75 C
1327 07-11-2020 19:25:00 6.8 C 93 % 5.75 C
1328 07-11-2020 19:30:00 6.8 C 93 % 5.75 C
1329 07-11-2020 19:35:00 6.8 C 93 % 5.75 C
1330 07-11-2020 19:40:00 6.7 C 93 % 5.65 C
1331 07-11-2020 19:45:00 6.7 C 93 % 5.65 C
1332 07-11-2020 19:50:00 6.7 C 93 % 5.65 C
1333 07-11-2020 19:55:00 6.6 C 94 % 5.71 C
1334 07-11-2020 20:00:00 6.6 C 94 % 5.71 C
1335 07-11-2020 20:05:00 6.6 C 94 % 5.71 C
1336 07-11-2020 20:10:00 6.6 C 93 % 5.55 C
1337 07-11-2020 20:15:00 6.4 C 93 % 5.35 C
1338 07-11-2020 20:20:00 6.4 C 93 % 5.35 C
1339 07-11-2020 20:25:00 6.3 C 93 % 5.25 C
1340 07-11-2020 20:30:00 6.3 C 93 % 5.25 C
1341 07-11-2020 20:35:00 6.2 C 94 % 5.31 C
1342 07-11-2020 20:40:00 6.2 C 93 % 5.15 C
1343 07-11-2020 20:45:00 6.1 C 93 % 5.06 C
1344 07-11-2020 20:50:00 6 C 94 % 5.11 C
1345 07-11-2020 20:55:00 5.9 C 94 % 5.01 C
1346 07-11-2020 21:00:00 5.9 C 94 % 5.01 C
1347 07-11-2020 21:05:00 5.8 C 94 % 4.91 C
1348 07-11-2020 21:10:00 5.7 C 94 % 4.81 C
1349 07-11-2020 21:15:00 5.7 C 94 % 4.81 C
1350 07-11-2020 21:20:00 5.6 C 94 % 4.71 C
Sensor: Nr:Datum:Temp:Feuchte:Taupunkt:
Aussen-T/F 1351 07-11-2020 21:25:00 5.6 C 94 % 4.71 C
1352 07-11-2020 21:30:00 5.6 C 94 % 4.71 C
1353 07-11-2020 21:35:00 5.6 C 94 % 4.71 C
1354 07-11-2020 21:40:00 5.6 C 94 % 4.71 C
1355 07-11-2020 21:45:00 5.4 C 94 % 4.51 C
1356 07-11-2020 21:50:00 5.4 C 94 % 4.51 C
1357 07-11-2020 21:55:00 5.3 C 94 % 4.41 C
1358 07-11-2020 22:00:00 5.3 C 94 % 4.41 C
1359 07-11-2020 22:05:00 5.2 C 94 % 4.32 C
1360 07-11-2020 22:10:00 5.2 C 94 % 4.32 C
1361 07-11-2020 22:15:00 5.1 C 94 % 4.22 C
1362 07-11-2020 22:20:00 5.1 C 94 % 4.22 C
1363 07-11-2020 22:25:00 5 C 95 % 4.27 C
1364 07-11-2020 22:30:00 4.9 C 95 % 4.17 C
1365 07-11-2020 22:35:00 4.8 C 95 % 4.07 C
1366 07-11-2020 22:40:00 4.7 C 94 % 3.82 C
1367 07-11-2020 22:45:00 4.7 C 95 % 3.97 C
1368 07-11-2020 22:50:00 4.6 C 95 % 3.87 C
1369 07-11-2020 22:55:00 4.5 C 95 % 3.77 C
1370 07-11-2020 23:00:00 4.4 C 95 % 3.67 C
1371 07-11-2020 23:05:00 4.3 C 95 % 3.57 C
1372 07-11-2020 23:10:00 4.3 C 95 % 3.57 C
1373 07-11-2020 23:15:00 4.3 C 95 % 3.57 C
1374 07-11-2020 23:20:00 4.3 C 95 % 3.57 C
1375 07-11-2020 23:25:00 4.2 C 95 % 3.47 C
Sensor: Nr:Datum:Temp:Feuchte:Taupunkt:
Aussen-T/F 1376 07-11-2020 23:30:00 4.2 C 95 % 3.47 C
1377 07-11-2020 23:35:00 4.2 C 95 % 3.47 C
1378 07-11-2020 23:40:00 4.2 C 95 % 3.47 C
1379 07-11-2020 23:45:00 4.1 C 95 % 3.37 C
1380 07-11-2020 23:50:00 4.1 C 95 % 3.37 C
1381 07-11-2020 23:55:00 4.1 C 95 % 3.37 C
1382 08-11-2020 00:00:00 4.1 C 96 % 3.52 C
1383 08-11-2020 00:05:00 4.1 C 96 % 3.52 C
1384 08-11-2020 00:10:00 4.1 C 96 % 3.52 C
1385 08-11-2020 00:15:00 4 C 95 % 3.27 C
1386 08-11-2020 00:20:00 4 C 95 % 3.27 C
1387 08-11-2020 00:25:00 3.9 C 95 % 3.17 C
1388 08-11-2020 00:30:00 3.9 C 96 % 3.32 C
1389 08-11-2020 00:35:00 3.9 C 96 % 3.32 C
1390 08-11-2020 00:40:00 3.9 C 96 % 3.32 C
1391 08-11-2020 00:45:00 3.9 C 96 % 3.32 C
1392 08-11-2020 00:50:00 3.8 C 96 % 3.22 C
1393 08-11-2020 00:55:00 3.8 C 96 % 3.22 C
1394 08-11-2020 01:00:00 3.8 C 96 % 3.22 C
1395 08-11-2020 01:05:00 3.7 C 96 % 3.12 C
1396 08-11-2020 01:10:00 3.7 C 96 % 3.12 C
1397 08-11-2020 01:15:00 3.6 C 96 % 3.02 C
1398 08-11-2020 01:20:00 3.6 C 96 % 3.02 C
1399 08-11-2020 01:25:00 3.4 C 95 % 2.68 C
1400 08-11-2020 01:30:00 3.4 C 95 % 2.68 C
Sensor: Nr:Datum:Temp:Feuchte:Taupunkt:
Aussen-T/F 1401 08-11-2020 01:35:00 3.3 C 96 % 2.72 C
1402 08-11-2020 01:40:00 3.3 C 96 % 2.72 C
1403 08-11-2020 01:45:00 3.3 C 96 % 2.72 C
1404 08-11-2020 01:50:00 3.2 C 96 % 2.63 C
1405 08-11-2020 01:55:00 3.2 C 96 % 2.63 C
1406 08-11-2020 02:00:00 3.2 C 96 % 2.63 C
1407 08-11-2020 02:05:00 3.2 C 96 % 2.63 C
1408 08-11-2020 02:10:00 3.2 C 96 % 2.63 C
1409 08-11-2020 02:15:00 3.3 C 96 % 2.72 C
1410 08-11-2020 02:20:00 3.3 C 96 % 2.72 C
1411 08-11-2020 02:25:00 3.3 C 96 % 2.72 C
1412 08-11-2020 02:30:00 3.3 C 96 % 2.72 C
1413 08-11-2020 02:35:00 3.3 C 96 % 2.72 C
1414 08-11-2020 02:40:00 3.2 C 96 % 2.63 C
1415 08-11-2020 02:45:00 3.1 C 96 % 2.53 C
1416 08-11-2020 02:50:00 3.1 C 96 % 2.53 C
1417 08-11-2020 02:55:00 3 C 96 % 2.43 C
1418 08-11-2020 03:00:00 2.9 C 96 % 2.33 C
1419 08-11-2020 03:05:00 2.9 C 96 % 2.33 C
1420 08-11-2020 03:10:00 2.8 C 96 % 2.23 C
1421 08-11-2020 03:15:00 2.8 C 96 % 2.23 C
1422 08-11-2020 03:20:00 2.8 C 96 % 2.23 C
1423 08-11-2020 03:25:00 2.8 C 96 % 2.23 C
1424 08-11-2020 03:30:00 2.8 C 96 % 2.23 C
1425 08-11-2020 03:35:00 2.9 C 96 % 2.33 C
Sensor: Nr:Datum:Temp:Feuchte:Taupunkt:
Aussen-T/F 1426 08-11-2020 03:40:00 2.9 C 96 % 2.33 C
1427 08-11-2020 03:45:00 2.9 C 96 % 2.33 C
1428 08-11-2020 03:50:00 2.8 C 96 % 2.23 C
1429 08-11-2020 03:55:00 2.8 C 96 % 2.23 C
1430 08-11-2020 04:00:00 2.8 C 96 % 2.23 C
1431 08-11-2020 04:05:00 2.8 C 96 % 2.23 C
1432 08-11-2020 04:10:00 2.8 C 96 % 2.23 C
1433 08-11-2020 04:15:00 2.9 C 97 % 2.47 C
1434 08-11-2020 04:20:00 2.8 C 96 % 2.23 C
1435 08-11-2020 04:25:00 2.7 C 96 % 2.13 C
1436 08-11-2020 04:30:00 2.6 C 96 % 2.03 C
1437 08-11-2020 04:35:00 2.5 C 96 % 1.93 C
1438 08-11-2020 04:40:00 2.4 C 96 % 1.83 C
1439 08-11-2020 04:45:00 2.4 C 96 % 1.83 C
1440 08-11-2020 04:50:00 2.4 C 96 % 1.83 C
1441 08-11-2020 04:55:00 2.4 C 96 % 1.83 C
1442 08-11-2020 05:00:00 2.5 C 97 % 2.07 C
1443 08-11-2020 05:05:00 2.6 C 97 % 2.17 C
1444 08-11-2020 05:10:00 2.7 C 97 % 2.27 C
1445 08-11-2020 05:15:00 2.7 C 97 % 2.27 C
1446 08-11-2020 05:20:00 2.7 C 97 % 2.27 C
1447 08-11-2020 05:25:00 2.7 C 97 % 2.27 C
1448 08-11-2020 05:30:00 2.7 C 97 % 2.27 C
1449 08-11-2020 05:35:00 2.7 C 96 % 2.13 C
1450 08-11-2020 05:40:00 2.6 C 96 % 2.03 C
Sensor: Nr:Datum:Temp:Feuchte:Taupunkt:
Aussen-T/F 1451 08-11-2020 05:45:00 2.5 C 97 % 2.07 C
1452 08-11-2020 05:50:00 2.4 C 96 % 1.83 C
1453 08-11-2020 05:55:00 2.3 C 96 % 1.73 C
1454 08-11-2020 06:00:00 2.3 C 96 % 1.73 C
1455 08-11-2020 06:05:00 2.3 C 96 % 1.73 C
1456 08-11-2020 06:10:00 2.3 C 96 % 1.73 C
1457 08-11-2020 06:15:00 2.3 C 96 % 1.73 C
1458 08-11-2020 06:20:00 2.4 C 97 % 1.97 C
1459 08-11-2020 06:25:00 2.5 C 97 % 2.07 C
1460 08-11-2020 06:30:00 2.6 C 97 % 2.17 C
1461 08-11-2020 06:35:00 2.7 C 97 % 2.27 C
1462 08-11-2020 06:40:00 2.7 C 97 % 2.27 C
1463 08-11-2020 06:45:00 2.7 C 97 % 2.27 C
1464 08-11-2020 06:50:00 2.7 C 97 % 2.27 C
1465 08-11-2020 06:55:00 2.7 C 97 % 2.27 C
1466 08-11-2020 07:00:00 2.7 C 97 % 2.27 C
1467 08-11-2020 07:05:00 2.6 C 97 % 2.17 C
1468 08-11-2020 07:10:00 2.5 C 97 % 2.07 C
1469 08-11-2020 07:15:00 2.5 C 97 % 2.07 C
1470 08-11-2020 07:20:00 2.6 C 97 % 2.17 C
1471 08-11-2020 07:25:00 2.5 C 97 % 2.07 C
1472 08-11-2020 07:30:00 2.4 C 97 % 1.97 C
1473 08-11-2020 07:35:00 2.4 C 97 % 1.97 C
1474 08-11-2020 07:40:00 2.3 C 97 % 1.87 C
1475 08-11-2020 07:45:00 2.2 C 97 % 1.77 C
Sensor: Nr:Datum:Temp:Feuchte:Taupunkt:
Aussen-T/F 1476 08-11-2020 07:50:00 2.2 C 97 % 1.77 C
1477 08-11-2020 07:55:00 2.2 C 97 % 1.77 C
1478 08-11-2020 08:00:00 2.2 C 97 % 1.77 C
1479 08-11-2020 08:05:00 2.2 C 97 % 1.77 C
1480 08-11-2020 08:10:00 2.3 C 97 % 1.87 C
1481 08-11-2020 08:15:00 2.5 C 97 % 2.07 C
1482 08-11-2020 08:20:00 2.7 C 97 % 2.27 C
1483 08-11-2020 08:25:00 2.8 C 97 % 2.37 C
1484 08-11-2020 08:30:00 2.9 C 97 % 2.47 C
1485 08-11-2020 08:35:00 3 C 97 % 2.57 C
1486 08-11-2020 08:40:00 3.1 C 97 % 2.67 C
1487 08-11-2020 08:45:00 3.1 C 97 % 2.67 C
1488 08-11-2020 08:50:00 3.2 C 97 % 2.77 C
1489 08-11-2020 08:55:00 3.3 C 97 % 2.87 C
1490 08-11-2020 09:00:00 3.3 C 97 % 2.87 C
1491 08-11-2020 09:05:00 3.4 C 97 % 2.97 C
1492 08-11-2020 09:10:00 3.5 C 97 % 3.07 C
1493 08-11-2020 09:15:00 3.7 C 97 % 3.27 C
1494 08-11-2020 09:20:00 3.8 C 97 % 3.37 C
1495 08-11-2020 09:25:00 3.9 C 97 % 3.47 C
1496 08-11-2020 09:30:00 4 C 97 % 3.57 C
1497 08-11-2020 09:35:00 4.1 C 97 % 3.67 C
1498 08-11-2020 09:40:00 4.2 C 97 % 3.77 C
1499 08-11-2020 09:45:00 4.3 C 98 % 4.01 C
1500 08-11-2020 09:50:00 4.4 C 98 % 4.11 C
Sensor: Nr:Datum:Temp:Feuchte:Taupunkt:
Aussen-T/F 1501 08-11-2020 09:55:00 4.6 C 97 % 4.17 C
1502 08-11-2020 10:00:00 4.7 C 98 % 4.41 C
1503 08-11-2020 10:05:00 4.8 C 98 % 4.51 C
1504 08-11-2020 10:10:00 4.9 C 97 % 4.46 C
1505 08-11-2020 10:15:00 5 C 98 % 4.71 C
1506 08-11-2020 10:20:00 5.1 C 98 % 4.81 C
1507 08-11-2020 10:25:00 5.2 C 97 % 4.76 C
1508 08-11-2020 10:30:00 5.3 C 98 % 5.01 C
1509 08-11-2020 10:35:00 5.5 C 98 % 5.21 C
1510 08-11-2020 10:40:00 5.6 C 98 % 5.31 C
1511 08-11-2020 10:45:00 5.7 C 98 % 5.41 C
1512 08-11-2020 10:50:00 5.9 C 98 % 5.61 C
1513 08-11-2020 10:55:00 6.1 C 98 % 5.81 C
1514 08-11-2020 11:00:00 6.2 C 98 % 5.91 C
1515 08-11-2020 11:05:00 6.3 C 98 % 6.01 C
1516 08-11-2020 11:10:00 6.6 C 98 % 6.31 C
1517 08-11-2020 11:15:00 6.7 C 98 % 6.41 C
1518 08-11-2020 11:20:00 6.8 C 98 % 6.51 C
1519 08-11-2020 11:25:00 6.9 C 98 % 6.61 C
1520 08-11-2020 11:30:00 7.1 C 98 % 6.81 C
1521 08-11-2020 11:35:00 7.2 C 98 % 6.91 C
1522 08-11-2020 11:40:00 7.3 C 98 % 7.01 C
1523 08-11-2020 11:45:00 7.5 C 98 % 7.2 C
1524 08-11-2020 11:50:00 7.7 C 98 % 7.4 C
1525 08-11-2020 11:55:00 7.8 C 97 % 7.35 C
Sensor: Nr:Datum:Temp:Feuchte:Taupunkt:
Aussen-T/F 1526 08-11-2020 12:00:00 7.9 C 98 % 7.6 C
1527 08-11-2020 12:05:00 8.1 C 97 % 7.65 C
1528 08-11-2020 12:10:00 8.3 C 98 % 8 C
1529 08-11-2020 12:15:00 8.5 C 97 % 8.05 C
1530 08-11-2020 12:20:00 8.7 C 98 % 8.4 C
1531 08-11-2020 12:25:00 8.8 C 97 % 8.35 C
1532 08-11-2020 12:30:00 8.9 C 97 % 8.45 C
1533 08-11-2020 12:35:00 9.1 C 97 % 8.65 C
1534 08-11-2020 12:40:00 9.2 C 97 % 8.75 C
1535 08-11-2020 12:45:00 9.3 C 97 % 8.85 C
1536 08-11-2020 12:50:00 9.4 C 97 % 8.95 C
1537 08-11-2020 12:55:00 9.5 C 96 % 8.89 C
1538 08-11-2020 13:00:00 9.6 C 96 % 8.99 C
1539 08-11-2020 13:05:00 9.8 C 96 % 9.19 C
1540 08-11-2020 13:10:00 9.9 C 96 % 9.29 C
1541 08-11-2020 13:15:00 10.1 C 96 % 9.49 C
1542 08-11-2020 13:20:00 10.2 C 96 % 9.59 C
1543 08-11-2020 13:25:00 10.3 C 96 % 9.69 C
1544 08-11-2020 13:30:00 10.3 C 95 % 9.54 C
1545 08-11-2020 13:35:00 10.4 C 94 % 9.48 C
1546 08-11-2020 13:40:00 10.5 C 94 % 9.58 C
1547 08-11-2020 13:45:00 10.7 C 93 % 9.62 C
1548 08-11-2020 13:50:00 10.8 C 93 % 9.71 C
1549 08-11-2020 13:55:00 10.9 C 92 % 9.65 C
1550 08-11-2020 14:00:00 11.1 C 93 % 10.01 C
Sensor: Nr:Datum:Temp:Feuchte:Taupunkt:
Aussen-T/F 1551 08-11-2020 14:05:00 11.2 C 92 % 9.95 C
1552 08-11-2020 14:10:00 11.4 C 92 % 10.15 C
1553 08-11-2020 14:15:00 11.6 C 91 % 10.18 C
1554 08-11-2020 14:20:00 11.8 C 91 % 10.38 C
1555 08-11-2020 14:25:00 11.9 C 90 % 10.31 C
1556 08-11-2020 14:30:00 12 C 89 % 10.25 C
1557 08-11-2020 14:35:00 12.2 C 88 % 10.27 C
1558 08-11-2020 14:40:00 12.2 C 87 % 10.1 C
1559 08-11-2020 14:45:00 12.3 C 88 % 10.37 C
1560 08-11-2020 14:50:00 12.4 C 88 % 10.47 C
1561 08-11-2020 14:55:00 12.5 C 89 % 10.74 C
1562 08-11-2020 15:00:00 12.6 C 89 % 10.84 C
1563 08-11-2020 15:05:00 12.7 C 88 % 10.77 C
1564 08-11-2020 15:10:00 12.7 C 88 % 10.77 C
1565 08-11-2020 15:15:00 12.7 C 88 % 10.77 C
1566 08-11-2020 15:20:00 12.7 C 87 % 10.59 C
1567 08-11-2020 15:25:00 12.7 C 88 % 10.77 C
1568 08-11-2020 15:30:00 12.8 C 88 % 10.86 C
1569 08-11-2020 15:35:00 12.8 C 87 % 10.69 C
1570 08-11-2020 15:40:00 12.8 C 86 % 10.52 C
1571 08-11-2020 15:45:00 12.8 C 87 % 10.69 C
1572 08-11-2020 15:50:00 12.8 C 87 % 10.69 C
1573 08-11-2020 15:55:00 12.7 C 87 % 10.59 C
1574 08-11-2020 16:00:00 12.7 C 87 % 10.59 C
1575 08-11-2020 16:05:00 12.6 C 87 % 10.5 C
Sensor: Nr:Datum:Temp:Feuchte:Taupunkt:
Aussen-T/F 1576 08-11-2020 16:10:00 12.4 C 88 % 10.47 C
1577 08-11-2020 16:15:00 12.3 C 88 % 10.37 C
1578 08-11-2020 16:20:00 12.3 C 88 % 10.37 C
1579 08-11-2020 16:25:00 12.2 C 89 % 10.44 C
1580 08-11-2020 16:30:00 12.1 C 89 % 10.34 C
1581 08-11-2020 16:35:00 12 C 89 % 10.25 C
1582 08-11-2020 16:40:00 11.9 C 89 % 10.15 C
1583 08-11-2020 16:45:00 11.8 C 89 % 10.05 C
1584 08-11-2020 16:50:00 11.6 C 89 % 9.85 C
1585 08-11-2020 16:55:00 11.5 C 90 % 9.92 C
1586 08-11-2020 17:00:00 11.4 C 90 % 9.82 C
1587 08-11-2020 17:05:00 11.3 C 90 % 9.72 C
1588 08-11-2020 17:10:00 11.2 C 90 % 9.62 C
1589 08-11-2020 17:15:00 11.2 C 91 % 9.79 C
1590 08-11-2020 17:20:00 11.1 C 91 % 9.69 C
1591 08-11-2020 17:25:00 11.1 C 91 % 9.69 C
1592 08-11-2020 17:30:00 11 C 91 % 9.59 C
1593 08-11-2020 17:35:00 10.9 C 92 % 9.65 C
1594 08-11-2020 17:40:00 10.9 C 92 % 9.65 C
1595 08-11-2020 17:45:00 10.9 C 92 % 9.65 C
1596 08-11-2020 17:50:00 10.8 C 92 % 9.55 C
1597 08-11-2020 17:55:00 10.8 C 92 % 9.55 C
1598 08-11-2020 18:00:00 10.8 C 92 % 9.55 C
1599 08-11-2020 18:05:00 10.7 C 92 % 9.45 C
1600 08-11-2020 18:10:00 10.7 C 93 % 9.62 C
Sensor: Nr:Datum:Temp:Feuchte:Taupunkt:
Aussen-T/F 1601 08-11-2020 18:15:00 10.7 C 93 % 9.62 C
1602 08-11-2020 18:20:00 10.7 C 93 % 9.62 C
1603 08-11-2020 18:25:00 10.7 C 93 % 9.62 C
1604 08-11-2020 18:30:00 10.7 C 93 % 9.62 C
1605 08-11-2020 18:35:00 10.7 C 93 % 9.62 C
1606 08-11-2020 18:40:00 10.7 C 93 % 9.62 C
1607 08-11-2020 18:45:00 10.6 C 93 % 9.52 C
1608 08-11-2020 18:50:00 10.6 C 93 % 9.52 C
1609 08-11-2020 18:55:00 10.6 C 93 % 9.52 C
1610 08-11-2020 19:00:00 10.6 C 93 % 9.52 C
1611 08-11-2020 19:05:00 10.6 C 94 % 9.68 C
1612 08-11-2020 19:10:00 10.6 C 94 % 9.68 C
1613 08-11-2020 19:15:00 10.6 C 94 % 9.68 C
1614 08-11-2020 19:20:00 10.6 C 94 % 9.68 C
1615 08-11-2020 19:25:00 10.6 C 94 % 9.68 C
1616 08-11-2020 19:30:00 10.6 C 94 % 9.68 C
1617 08-11-2020 19:35:00 10.6 C 94 % 9.68 C
1618 08-11-2020 19:40:00 10.6 C 94 % 9.68 C
1619 08-11-2020 19:45:00 10.5 C 94 % 9.58 C
1620 08-11-2020 19:50:00 10.5 C 94 % 9.58 C
1621 08-11-2020 19:55:00 10.4 C 95 % 9.63 C
1622 08-11-2020 20:00:00 10.4 C 95 % 9.63 C
1623 08-11-2020 20:05:00 10.4 C 95 % 9.63 C
1624 08-11-2020 20:10:00 10.4 C 95 % 9.63 C
1625 08-11-2020 20:15:00 10.4 C 95 % 9.63 C
Sensor: Nr:Datum:Temp:Feuchte:Taupunkt:
Aussen-T/F 1626 08-11-2020 20:20:00 10.3 C 95 % 9.54 C
1627 08-11-2020 20:25:00 10.3 C 95 % 9.54 C
1628 08-11-2020 20:30:00 10.2 C 94 % 9.28 C
1629 08-11-2020 20:35:00 10.2 C 94 % 9.28 C
1630 08-11-2020 20:40:00 10.1 C 94 % 9.18 C
1631 08-11-2020 20:45:00 10.1 C 95 % 9.34 C
1632 08-11-2020 20:50:00 10.1 C 95 % 9.34 C
1633 08-11-2020 20:55:00 10.1 C 95 % 9.34 C
1634 08-11-2020 21:00:00 10.1 C 95 % 9.34 C
1635 08-11-2020 21:05:00 10.1 C 95 % 9.34 C
1636 08-11-2020 21:10:00 10.1 C 95 % 9.34 C
1637 08-11-2020 21:15:00 10.1 C 95 % 9.34 C
1638 08-11-2020 21:20:00 10.1 C 95 % 9.34 C
1639 08-11-2020 21:25:00 10 C 95 % 9.24 C
1640 08-11-2020 21:30:00 10 C 95 % 9.24 C
1641 08-11-2020 21:35:00 9.9 C 95 % 9.14 C
1642 08-11-2020 21:40:00 9.9 C 95 % 9.14 C
1643 08-11-2020 21:45:00 9.8 C 95 % 9.04 C
1644 08-11-2020 21:50:00 9.8 C 95 % 9.04 C
1645 08-11-2020 21:55:00 9.8 C 95 % 9.04 C
1646 08-11-2020 22:00:00 9.7 C 95 % 8.94 C
1647 08-11-2020 22:05:00 9.7 C 95 % 8.94 C
1648 08-11-2020 22:10:00 9.7 C 95 % 8.94 C
1649 08-11-2020 22:15:00 9.7 C 95 % 8.94 C
1650 08-11-2020 22:20:00 9.7 C 95 % 8.94 C
Sensor: Nr:Datum:Temp:Feuchte:Taupunkt:
Aussen-T/F 1651 08-11-2020 22:25:00 9.6 C 95 % 8.84 C
1652 08-11-2020 22:30:00 9.6 C 95 % 8.84 C
1653 08-11-2020 22:35:00 9.6 C 95 % 8.84 C
1654 08-11-2020 22:40:00 9.6 C 95 % 8.84 C
1655 08-11-2020 22:45:00 9.6 C 95 % 8.84 C
1656 08-11-2020 22:50:00 9.5 C 95 % 8.74 C
1657 08-11-2020 22:55:00 9.4 C 95 % 8.64 C
1658 08-11-2020 23:00:00 9.4 C 95 % 8.64 C
1659 08-11-2020 23:05:00 9.4 C 95 % 8.64 C
1660 08-11-2020 23:10:00 9.4 C 95 % 8.64 C
1661 08-11-2020 23:15:00 9.4 C 95 % 8.64 C
1662 08-11-2020 23:20:00 9.4 C 95 % 8.64 C
1663 08-11-2020 23:25:00 9.4 C 95 % 8.64 C
1664 08-11-2020 23:30:00 9.4 C 95 % 8.64 C
1665 08-11-2020 23:35:00 9.4 C 95 % 8.64 C
1666 08-11-2020 23:40:00 9.4 C 95 % 8.64 C
1667 08-11-2020 23:45:00 9.4 C 95 % 8.64 C
1668 08-11-2020 23:50:00 9.4 C 96 % 8.8 C
1669 08-11-2020 23:55:00 9.5 C 96 % 8.89 C
1670 09-11-2020 00:00:00 9.6 C 96 % 8.99 C
1671 09-11-2020 00:05:00 9.6 C 96 % 8.99 C
1672 09-11-2020 00:10:00 9.6 C 96 % 8.99 C
1673 09-11-2020 00:15:00 9.5 C 96 % 8.89 C
1674 09-11-2020 00:20:00 9.5 C 96 % 8.89 C
1675 09-11-2020 00:25:00 9.5 C 96 % 8.89 C
Sensor: Nr:Datum:Temp:Feuchte:Taupunkt:
Aussen-T/F 1676 09-11-2020 00:30:00 9.4 C 96 % 8.8 C
1677 09-11-2020 00:35:00 9.4 C 96 % 8.8 C
1678 09-11-2020 00:40:00 9.4 C 96 % 8.8 C
1679 09-11-2020 00:45:00 9.3 C 96 % 8.7 C
1680 09-11-2020 00:50:00 9.3 C 96 % 8.7 C
1681 09-11-2020 00:55:00 9.3 C 96 % 8.7 C
1682 09-11-2020 01:00:00 9.4 C 96 % 8.8 C
1683 09-11-2020 01:05:00 9.4 C 96 % 8.8 C
1684 09-11-2020 01:10:00 9.4 C 96 % 8.8 C
1685 09-11-2020 01:15:00 9.4 C 96 % 8.8 C
1686 09-11-2020 01:20:00 9.4 C 96 % 8.8 C
1687 09-11-2020 01:25:00 9.4 C 96 % 8.8 C
1688 09-11-2020 01:30:00 9.4 C 96 % 8.8 C
1689 09-11-2020 01:35:00 9.4 C 96 % 8.8 C
1690 09-11-2020 01:40:00 9.4 C 96 % 8.8 C
1691 09-11-2020 01:45:00 9.4 C 96 % 8.8 C
1692 09-11-2020 01:50:00 9.4 C 96 % 8.8 C
1693 09-11-2020 01:55:00 9.4 C 96 % 8.8 C
1694 09-11-2020 02:00:00 9.4 C 96 % 8.8 C
1695 09-11-2020 02:05:00 9.4 C 96 % 8.8 C
1696 09-11-2020 02:10:00 9.4 C 96 % 8.8 C
1697 09-11-2020 02:15:00 9.4 C 96 % 8.8 C
1698 09-11-2020 02:20:00 9.4 C 96 % 8.8 C
1699 09-11-2020 02:25:00 9.4 C 96 % 8.8 C
1700 09-11-2020 02:30:00 9.4 C 96 % 8.8 C
Sensor: Nr:Datum:Temp:Feuchte:Taupunkt:
Aussen-T/F 1701 09-11-2020 02:35:00 9.3 C 96 % 8.7 C
1702 09-11-2020 02:40:00 9.3 C 96 % 8.7 C
1703 09-11-2020 02:45:00 9.3 C 96 % 8.7 C
1704 09-11-2020 02:50:00 9.3 C 96 % 8.7 C
1705 09-11-2020 02:55:00 9.3 C 96 % 8.7 C
1706 09-11-2020 03:00:00 9.4 C 96 % 8.8 C
1707 09-11-2020 03:05:00 9.4 C 96 % 8.8 C
1708 09-11-2020 03:10:00 9.4 C 96 % 8.8 C
1709 09-11-2020 03:15:00 9.3 C 96 % 8.7 C
1710 09-11-2020 03:20:00 9.3 C 96 % 8.7 C
1711 09-11-2020 03:25:00 9.3 C 96 % 8.7 C
1712 09-11-2020 03:30:00 9.3 C 96 % 8.7 C
1713 09-11-2020 03:35:00 9.3 C 97 % 8.85 C
1714 09-11-2020 03:40:00 9.3 C 96 % 8.7 C
1715 09-11-2020 03:45:00 9.3 C 96 % 8.7 C
1716 09-11-2020 03:50:00 9.3 C 96 % 8.7 C
1717 09-11-2020 03:55:00 9.3 C 96 % 8.7 C
1718 09-11-2020 04:00:00 9.3 C 96 % 8.7 C
1719 09-11-2020 04:05:00 9.3 C 97 % 8.85 C
1720 09-11-2020 04:10:00 9.3 C 97 % 8.85 C
1721 09-11-2020 04:15:00 9.3 C 97 % 8.85 C
1722 09-11-2020 04:20:00 9.3 C 97 % 8.85 C
1723 09-11-2020 04:25:00 9.3 C 97 % 8.85 C
1724 09-11-2020 04:30:00 9.3 C 96 % 8.7 C
1725 09-11-2020 04:35:00 9.2 C 96 % 8.6 C
Sensor: Nr:Datum:Temp:Feuchte:Taupunkt:
Aussen-T/F 1726 09-11-2020 04:40:00 9.1 C 96 % 8.5 C
1727 09-11-2020 04:45:00 9.1 C 96 % 8.5 C
1728 09-11-2020 04:50:00 8.9 C 96 % 8.3 C
1729 09-11-2020 04:55:00 8.9 C 96 % 8.3 C
1730 09-11-2020 05:00:00 8.8 C 96 % 8.2 C
1731 09-11-2020 05:05:00 8.7 C 96 % 8.1 C
1732 09-11-2020 05:10:00 8.6 C 96 % 8 C
1733 09-11-2020 05:15:00 8.4 C 96 % 7.8 C
1734 09-11-2020 05:20:00 8.3 C 96 % 7.7 C
1735 09-11-2020 05:25:00 8.2 C 96 % 7.6 C
1736 09-11-2020 05:30:00 8.3 C 96 % 7.7 C
1737 09-11-2020 05:35:00 8.3 C 96 % 7.7 C
1738 09-11-2020 05:40:00 8.3 C 97 % 7.85 C
1739 09-11-2020 05:45:00 8.3 C 97 % 7.85 C
1740 09-11-2020 05:50:00 8.4 C 97 % 7.95 C
1741 09-11-2020 05:55:00 8.5 C 97 % 8.05 C
1742 09-11-2020 06:00:00 8.6 C 97 % 8.15 C
1743 09-11-2020 06:05:00 8.5 C 97 % 8.05 C
1744 09-11-2020 06:10:00 8.4 C 97 % 7.95 C
1745 09-11-2020 06:15:00 8.4 C 97 % 7.95 C
1746 09-11-2020 06:20:00 8.4 C 97 % 7.95 C
1747 09-11-2020 06:25:00 8.3 C 97 % 7.85 C
1748 09-11-2020 06:30:00 8.3 C 96 % 7.7 C
1749 09-11-2020 06:35:00 8.2 C 96 % 7.6 C
1750 09-11-2020 06:40:00 8.1 C 96 % 7.5 C
Sensor: Nr:Datum:Temp:Feuchte:Taupunkt:
Aussen-T/F 1751 09-11-2020 06:45:00 8.1 C 97 % 7.65 C
1752 09-11-2020 06:50:00 8.1 C 97 % 7.65 C
1753 09-11-2020 06:55:00 8.2 C 97 % 7.75 C
1754 09-11-2020 07:00:00 8.2 C 97 % 7.75 C
1755 09-11-2020 07:05:00 8.2 C 97 % 7.75 C
1756 09-11-2020 07:10:00 8.2 C 97 % 7.75 C
1757 09-11-2020 07:15:00 8.2 C 97 % 7.75 C
1758 09-11-2020 07:20:00 8.2 C 97 % 7.75 C
1759 09-11-2020 07:25:00 8.2 C 97 % 7.75 C
1760 09-11-2020 07:30:00 8.2 C 97 % 7.75 C
1761 09-11-2020 07:35:00 8.1 C 97 % 7.65 C
1762 09-11-2020 07:40:00 7.9 C 97 % 7.45 C
1763 09-11-2020 07:45:00 7.8 C 96 % 7.2 C
1764 09-11-2020 07:50:00 7.8 C 97 % 7.35 C
1765 09-11-2020 07:55:00 7.9 C 97 % 7.45 C
1766 09-11-2020 08:00:00 7.9 C 97 % 7.45 C
1767 09-11-2020 08:05:00 8 C 97 % 7.55 C
1768 09-11-2020 08:10:00 8.1 C 97 % 7.65 C
1769 09-11-2020 08:15:00 8.2 C 97 % 7.75 C
1770 09-11-2020 08:20:00 8.3 C 97 % 7.85 C
1771 09-11-2020 08:25:00 8.3 C 97 % 7.85 C
1772 09-11-2020 08:30:00 8.4 C 97 % 7.95 C
1773 09-11-2020 08:35:00 8.5 C 97 % 8.05 C
1774 09-11-2020 08:40:00 8.5 C 97 % 8.05 C
1775 09-11-2020 08:45:00 8.6 C 97 % 8.15 C
Sensor: Nr:Datum:Temp:Feuchte:Taupunkt:
Aussen-T/F 1776 09-11-2020 08:50:00 8.7 C 97 % 8.25 C
1777 09-11-2020 08:55:00 8.7 C 97 % 8.25 C
1778 09-11-2020 09:00:00 8.8 C 97 % 8.35 C
1779 09-11-2020 09:05:00 8.8 C 97 % 8.35 C
1780 09-11-2020 09:10:00 8.8 C 97 % 8.35 C
1781 09-11-2020 09:15:00 8.8 C 97 % 8.35 C
1782 09-11-2020 09:20:00 8.8 C 97 % 8.35 C
1783 09-11-2020 09:25:00 8.8 C 97 % 8.35 C
1784 09-11-2020 09:30:00 8.9 C 97 % 8.45 C
1785 09-11-2020 09:35:00 9 C 97 % 8.55 C
1786 09-11-2020 09:40:00 9.1 C 97 % 8.65 C
1787 09-11-2020 09:45:00 9.2 C 97 % 8.75 C
1788 09-11-2020 09:50:00 9.3 C 97 % 8.85 C
1789 09-11-2020 09:55:00 9.3 C 97 % 8.85 C
1790 09-11-2020 10:00:00 9.4 C 97 % 8.95 C
1791 09-11-2020 10:05:00 9.4 C 97 % 8.95 C
1792 09-11-2020 10:10:00 9.4 C 97 % 8.95 C
1793 09-11-2020 10:15:00 9.5 C 97 % 9.05 C
1794 09-11-2020 10:20:00 9.6 C 97 % 9.15 C
1795 09-11-2020 10:25:00 9.6 C 97 % 9.15 C
1796 09-11-2020 10:30:00 9.7 C 97 % 9.25 C
1797 09-11-2020 10:35:00 9.8 C 97 % 9.35 C
1798 09-11-2020 10:40:00 9.9 C 98 % 9.6 C
1799 09-11-2020 10:45:00 10.1 C 97 % 9.65 C
1800 09-11-2020 10:50:00 10.3 C 98 % 10 C
Sensor: Nr:Datum:Temp:Feuchte:Taupunkt:
Aussen-T/F 1801 09-11-2020 10:55:00 10.5 C 98 % 10.2 C
1802 09-11-2020 11:00:00 10.6 C 98 % 10.3 C
1803 09-11-2020 11:05:00 10.6 C 98 % 10.3 C
1804 09-11-2020 11:10:00 10.7 C 98 % 10.4 C
1805 09-11-2020 11:15:00 10.8 C 98 % 10.5 C
1806 09-11-2020 11:20:00 10.9 C 98 % 10.6 C
1807 09-11-2020 11:25:00 11 C 98 % 10.7 C
1808 09-11-2020 11:30:00 11.1 C 98 % 10.8 C
1809 09-11-2020 11:35:00 11.2 C 98 % 10.9 C
1810 09-11-2020 11:40:00 11.2 C 98 % 10.9 C
1811 09-11-2020 11:45:00 11.3 C 98 % 11 C
1812 09-11-2020 11:50:00 11.3 C 98 % 11 C
1813 09-11-2020 11:55:00 11.4 C 98 % 11.1 C
1814 09-11-2020 12:00:00 11.4 C 98 % 11.1 C
1815 09-11-2020 12:05:00 11.4 C 98 % 11.1 C
1816 09-11-2020 12:10:00 11.5 C 97 % 11.04 C
1817 09-11-2020 12:15:00 11.5 C 97 % 11.04 C
1818 09-11-2020 12:20:00 11.6 C 97 % 11.14 C
1819 09-11-2020 12:25:00 11.6 C 98 % 11.29 C
1820 09-11-2020 12:30:00 11.7 C 98 % 11.39 C
1821 09-11-2020 12:35:00 11.8 C 98 % 11.49 C
1822 09-11-2020 12:40:00 11.9 C 98 % 11.59 C
1823 09-11-2020 12:45:00 12.2 C 98 % 11.89 C
1824 09-11-2020 12:50:00 12.4 C 98 % 12.09 C
1825 09-11-2020 12:55:00 12.6 C 98 % 12.29 C
Sensor: Nr:Datum:Temp:Feuchte:Taupunkt:
Aussen-T/F 1826 09-11-2020 13:00:00 12.7 C 98 % 12.39 C
1827 09-11-2020 13:05:00 12.8 C 98 % 12.49 C
1828 09-11-2020 13:10:00 12.8 C 98 % 12.49 C
1829 09-11-2020 13:15:00 12.9 C 98 % 12.59 C
1830 09-11-2020 13:20:00 13.1 C 98 % 12.79 C
1831 09-11-2020 13:25:00 13.1 C 98 % 12.79 C
1832 09-11-2020 13:30:00 13.2 C 97 % 12.73 C
1833 09-11-2020 13:35:00 13.1 C 97 % 12.63 C
1834 09-11-2020 13:40:00 13.2 C 97 % 12.73 C
1835 09-11-2020 13:45:00 13.3 C 96 % 12.68 C
1836 09-11-2020 13:50:00 13.4 C 96 % 12.78 C
1837 09-11-2020 13:55:00 13.4 C 94 % 12.45 C
1838 09-11-2020 14:00:00 13.6 C 94 % 12.65 C
1839 09-11-2020 14:05:00 13.6 C 93 % 12.49 C
1840 09-11-2020 14:10:00 13.6 C 92 % 12.33 C
1841 09-11-2020 14:15:00 13.7 C 92 % 12.42 C
1842 09-11-2020 14:20:00 13.7 C 92 % 12.42 C
1843 09-11-2020 14:25:00 13.8 C 92 % 12.52 C
1844 09-11-2020 14:30:00 13.8 C 92 % 12.52 C
1845 09-11-2020 14:35:00 13.7 C 92 % 12.42 C
1846 09-11-2020 14:40:00 13.7 C 92 % 12.42 C
1847 09-11-2020 14:45:00 13.7 C 93 % 12.59 C
1848 09-11-2020 14:50:00 13.6 C 93 % 12.49 C
1849 09-11-2020 14:55:00 13.6 C 93 % 12.49 C
1850 09-11-2020 15:00:00 13.6 C 93 % 12.49 C
Sensor: Nr:Datum:Temp:Feuchte:Taupunkt:
Aussen-T/F 1851 09-11-2020 15:05:00 13.5 C 93 % 12.39 C
1852 09-11-2020 15:10:00 13.4 C 93 % 12.29 C
1853 09-11-2020 15:15:00 13.3 C 93 % 12.19 C
1854 09-11-2020 15:20:00 13.3 C 93 % 12.19 C
1855 09-11-2020 15:25:00 13.2 C 93 % 12.09 C
1856 09-11-2020 15:30:00 13.2 C 93 % 12.09 C
1857 09-11-2020 15:35:00 13.1 C 93 % 11.99 C
1858 09-11-2020 15:40:00 13.1 C 93 % 11.99 C
1859 09-11-2020 15:45:00 13 C 93 % 11.9 C
1860 09-11-2020 15:50:00 13 C 93 % 11.9 C
1861 09-11-2020 15:55:00 12.9 C 93 % 11.8 C
1862 09-11-2020 16:00:00 12.8 C 93 % 11.7 C
1863 09-11-2020 16:05:00 12.8 C 93 % 11.7 C
1864 09-11-2020 16:10:00 12.7 C 93 % 11.6 C
1865 09-11-2020 16:15:00 12.7 C 94 % 11.76 C
1866 09-11-2020 16:20:00 12.6 C 93 % 11.5 C
1867 09-11-2020 16:25:00 12.5 C 94 % 11.56 C
1868 09-11-2020 16:30:00 12.4 C 94 % 11.46 C
1869 09-11-2020 16:35:00 12.4 C 94 % 11.46 C
1870 09-11-2020 16:40:00 12.3 C 94 % 11.36 C
1871 09-11-2020 16:45:00 12.2 C 94 % 11.26 C
1872 09-11-2020 16:50:00 12.2 C 94 % 11.26 C
1873 09-11-2020 16:55:00 12.2 C 94 % 11.26 C
1874 09-11-2020 17:00:00 12.1 C 94 % 11.16 C
1875 09-11-2020 17:05:00 11.9 C 94 % 10.97 C
Sensor: Nr:Datum:Temp:Feuchte:Taupunkt:
Aussen-T/F 1876 09-11-2020 17:10:00 11.8 C 94 % 10.87 C
1877 09-11-2020 17:15:00 11.7 C 94 % 10.77 C
1878 09-11-2020 17:20:00 11.6 C 94 % 10.67 C
1879 09-11-2020 17:25:00 11.6 C 94 % 10.67 C
1880 09-11-2020 17:30:00 11.4 C 94 % 10.47 C
1881 09-11-2020 17:35:00 11.4 C 94 % 10.47 C
1882 09-11-2020 17:40:00 11.3 C 94 % 10.37 C
1883 09-11-2020 17:45:00 11.2 C 94 % 10.27 C
1884 09-11-2020 17:50:00 11.1 C 95 % 10.33 C
1885 09-11-2020 17:55:00 11.1 C 95 % 10.33 C
1886 09-11-2020 18:00:00 11 C 95 % 10.23 C
1887 09-11-2020 18:05:00 10.8 C 94 % 9.87 C
1888 09-11-2020 18:10:00 10.7 C 95 % 9.93 C
1889 09-11-2020 18:15:00 10.6 C 95 % 9.83 C
1890 09-11-2020 18:20:00 10.4 C 95 % 9.63 C
1891 09-11-2020 18:25:00 10.4 C 95 % 9.63 C
1892 09-11-2020 18:30:00 10.4 C 95 % 9.63 C
1893 09-11-2020 18:35:00 10.4 C 95 % 9.63 C
1894 09-11-2020 18:40:00 10.3 C 95 % 9.54 C
1895 09-11-2020 18:45:00 10.3 C 95 % 9.54 C
1896 09-11-2020 18:50:00 10.2 C 95 % 9.44 C
1897 09-11-2020 18:55:00 10.1 C 95 % 9.34 C
1898 09-11-2020 19:00:00 10 C 95 % 9.24 C
1899 09-11-2020 19:05:00 9.9 C 95 % 9.14 C
1900 09-11-2020 19:10:00 9.8 C 95 % 9.04 C
Sensor: Nr:Datum:Temp:Feuchte:Taupunkt:
Aussen-T/F 1901 09-11-2020 19:15:00 9.8 C 95 % 9.04 C
1902 09-11-2020 19:20:00 9.7 C 96 % 9.09 C
1903 09-11-2020 19:25:00 9.7 C 95 % 8.94 C
1904 09-11-2020 19:30:00 9.6 C 95 % 8.84 C
1905 09-11-2020 19:35:00 9.6 C 96 % 8.99 C
1906 09-11-2020 19:40:00 9.6 C 96 % 8.99 C
1907 09-11-2020 19:45:00 9.5 C 96 % 8.89 C
1908 09-11-2020 19:50:00 9.4 C 96 % 8.8 C
1909 09-11-2020 19:55:00 9.4 C 96 % 8.8 C
1910 09-11-2020 20:00:00 9.3 C 96 % 8.7 C
1911 09-11-2020 20:05:00 9.3 C 96 % 8.7 C
1912 09-11-2020 20:10:00 9.3 C 96 % 8.7 C
1913 09-11-2020 20:15:00 9.3 C 96 % 8.7 C
1914 09-11-2020 20:20:00 9.2 C 96 % 8.6 C
1915 09-11-2020 20:25:00 9.1 C 96 % 8.5 C
1916 09-11-2020 20:30:00 9.1 C 96 % 8.5 C
1917 09-11-2020 20:35:00 9 C 96 % 8.4 C
1918 09-11-2020 20:40:00 8.9 C 96 % 8.3 C
1919 09-11-2020 20:45:00 8.9 C 96 % 8.3 C
1920 09-11-2020 20:50:00 8.8 C 96 % 8.2 C
1921 09-11-2020 20:55:00 8.8 C 96 % 8.2 C
1922 09-11-2020 21:00:00 8.7 C 96 % 8.1 C
1923 09-11-2020 21:05:00 8.6 C 96 % 8 C
1924 09-11-2020 21:10:00 8.5 C 96 % 7.9 C
1925 09-11-2020 21:15:00 8.4 C 96 % 7.8 C
Sensor: Nr:Datum:Temp:Feuchte:Taupunkt:
Aussen-T/F 1926 09-11-2020 21:20:00 8.3 C 96 % 7.7 C
1927 09-11-2020 21:25:00 8.2 C 96 % 7.6 C
1928 09-11-2020 21:30:00 8.1 C 96 % 7.5 C
1929 09-11-2020 21:35:00 8 C 96 % 7.4 C
1930 09-11-2020 21:40:00 7.9 C 96 % 7.3 C
1931 09-11-2020 21:45:00 7.8 C 96 % 7.2 C
1932 09-11-2020 21:50:00 7.8 C 96 % 7.2 C
1933 09-11-2020 21:55:00 7.7 C 96 % 7.1 C
1934 09-11-2020 22:00:00 7.6 C 96 % 7 C
1935 09-11-2020 22:05:00 7.5 C 96 % 6.9 C
1936 09-11-2020 22:10:00 7.4 C 96 % 6.8 C
1937 09-11-2020 22:15:00 7.3 C 96 % 6.71 C
1938 09-11-2020 22:20:00 7.3 C 96 % 6.71 C
1939 09-11-2020 22:25:00 7.2 C 96 % 6.61 C
1940 09-11-2020 22:30:00 7.2 C 96 % 6.61 C
1941 09-11-2020 22:35:00 7.1 C 96 % 6.51 C
1942 09-11-2020 22:40:00 7 C 96 % 6.41 C
1943 09-11-2020 22:45:00 7.1 C 96 % 6.51 C
1944 09-11-2020 22:50:00 7 C 96 % 6.41 C
1945 09-11-2020 22:55:00 7 C 96 % 6.41 C
1946 09-11-2020 23:00:00 6.9 C 96 % 6.31 C
1947 09-11-2020 23:05:00 6.9 C 96 % 6.31 C
1948 09-11-2020 23:10:00 6.8 C 96 % 6.21 C
1949 09-11-2020 23:15:00 6.7 C 96 % 6.11 C
1950 09-11-2020 23:20:00 6.7 C 96 % 6.11 C
Sensor: Nr:Datum:Temp:Feuchte:Taupunkt:
Aussen-T/F 1951 09-11-2020 23:25:00 6.7 C 96 % 6.11 C
1952 09-11-2020 23:30:00 6.7 C 96 % 6.11 C
1953 09-11-2020 23:35:00 6.7 C 96 % 6.11 C
1954 09-11-2020 23:40:00 6.6 C 96 % 6.01 C
1955 09-11-2020 23:45:00 6.4 C 96 % 5.81 C
1956 09-11-2020 23:50:00 6.3 C 96 % 5.71 C
1957 09-11-2020 23:55:00 6.2 C 96 % 5.61 C

Legende:
   Min
   Max


Maximal/Minimal-Werte vom 03.11.2020 - 09.11.2020

Sensor Min Max Avg
Temp
(Aussen-T/F)
0.3 °C
07-11-2020  03:25:00
13.8 °C
09-11-2020  14:25:00
6.14 °C
Feuchte
(Aussen-T/F)
71 %
03-11-2020  15:20:00
98 %
05-11-2020  15:00:00
94.45 %
Taupunkt
(Aussen-T/F)
-0.16 C
07-11-2020  02:15:00
12.79 C
09-11-2020  13:20:00
5.28 C

Die Daten stammen von einer Davis Vantage Pro 2 Wetter-Station und werden unter Linux mit der Software wview2wettercgi und aufbereitet. Alle Angaben erfolgen ohne Gewähr für ihre Vollständigkeit oder Richtigkeit.
Kontakt: Rainer Krienke krienke@uni-koblenz.de . Meine Webseiten an der Uni Koblenz oder privat.
Version: $Revision: 0.78 $